Time,TemperatureF,DewpointF,PressureIn,WindDirection,WindDirectionDegrees,WindSpeedMPH,WindSpeedGustMPH,Humidity,HourlyPrecipIn,Conditions,Clouds,dailyrainin,SoftwareType,DateUTC
2013-03-01 00:00:00,33.2,30.3,29.72,WNW,288,3.0,7.0,89,0.00,,---,0.00,VWS V14.01,2013-03-01 05:00:00,
2013-03-01 00:05:00,33.2,30.3,29.73,WNW,302,0.0,2.0,89,0.00,,---,0.00,VWS V14.01,2013-03-01 05:05:00,
2013-03-01 00:06:00,33.2,30.3,29.73,WNW,290,3.0,3.0,89,0.00,,---,0.00,VWS V14.01,2013-03-01 05:06:00,
2013-03-01 00:10:00,33.2,30.3,29.72,WNW,290,1.0,6.0,89,0.00,,---,0.00,VWS V14.01,2013-03-01 05:10:00,
2013-03-01 00:11:00,33.2,30.3,29.72,WNW,293,4.0,6.0,89,0.00,,---,0.00,VWS V14.01,2013-03-01 05:11:00,
2013-03-01 00:15:00,33.2,30.3,29.72,WNW,299,0.0,6.0,89,0.00,,---,0.00,VWS V14.01,2013-03-01 05:15:00,
2013-03-01 00:16:00,33.2,30.3,29.72,WNW,299,1.0,6.0,89,0.00,,---,0.00,VWS V14.01,2013-03-01 05:16:00,
2013-03-01 00:20:00,33.2,30.3,29.72,WNW,286,2.0,6.0,89,0.00,,---,0.00,VWS V14.01,2013-03-01 05:20:00,
2013-03-01 00:21:00,33.2,30.3,29.72,WNW,289,0.0,6.0,89,0.00,,---,0.00,VWS V14.01,2013-03-01 05:21:00,
2013-03-01 00:23:00,33.2,30.3,29.73,WNW,298,3.0,6.0,89,0.00,,---,0.00,VWS V14.01,2013-03-01 05:23:00,
2013-03-01 00:25:00,33.2,30.3,29.73,WNW,284,3.0,6.0,89,0.00,,---,0.00,VWS V14.01,2013-03-01 05:25:00,
2013-03-01 00:26:00,33.2,30.3,29.73,NW,305,4.0,10.0,89,0.00,,---,0.00,VWS V14.01,2013-03-01 05:26:00,
2013-03-01 00:28:00,33.2,30.3,29.73,WNW,296,5.0,10.0,89,0.00,,---,0.00,VWS V14.01,2013-03-01 05:28:00,
2013-03-01 00:31:00,33.2,30.3,29.73,WNW,295,3.0,10.0,89,0.00,,---,0.00,VWS V14.01,2013-03-01 05:31:00,
2013-03-01 00:33:00,33.2,30.3,29.73,NW,308,3.0,10.0,89,0.00,,---,0.00,VWS V14.01,2013-03-01 05:33:00,
2013-03-01 00:36:00,33.2,30.3,29.73,WNW,286,4.0,6.0,89,0.00,,---,0.00,VWS V14.01,2013-03-01 05:36:00,
2013-03-01 00:37:00,33.2,30.3,29.73,NW,306,4.0,6.0,89,0.00,,---,0.00,VWS V14.01,2013-03-01 05:37:00,
2013-03-01 00:38:00,33.2,30.3,29.73,WNW,290,2.0,6.0,89,0.00,,---,0.00,VWS V14.01,2013-03-01 05:38:00,
2013-03-01 00:42:00,33.2,30.3,29.73,WNW,299,3.0,7.0,89,0.00,,---,0.00,VWS V14.01,2013-03-01 05:42:00,
2013-03-01 00:43:00,33.1,30.2,29.73,West,275,3.0,8.0,89,0.00,,---,0.00,VWS V14.01,2013-03-01 05:43:00,
2013-03-01 00:47:00,33.2,30.3,29.73,WNW,288,2.0,8.0,89,0.00,,---,0.00,VWS V14.01,2013-03-01 05:47:00,
2013-03-01 00:48:00,33.2,30.3,29.73,WNW,299,3.0,8.0,89,0.00,,---,0.00,VWS V14.01,2013-03-01 05:48:00,
2013-03-01 00:52:00,33.2,30.3,29.73,NNW,339,1.0,8.0,89,0.00,,---,0.00,VWS V14.01,2013-03-01 05:52:00,
2013-03-01 00:53:00,33.1,30.5,29.73,North,360,2.0,8.0,90,0.00,,---,0.00,VWS V14.01,2013-03-01 05:53:00,
2013-03-01 00:54:00,33.1,30.5,29.73,WNW,295,2.0,8.0,90,0.00,,---,0.00,VWS V14.01,2013-03-01 05:54:00,
2013-03-01 00:57:00,33.1,30.2,29.73,NNW,336,2.0,9.0,89,0.00,,---,0.00,VWS V14.01,2013-03-01 05:57:00,
2013-03-01 00:58:00,33.1,30.2,29.73,NNW,336,0.0,9.0,89,0.00,,---,0.00,VWS V14.01,2013-03-01 05:58:00,
2013-03-01 00:59:00,33.1,30.5,29.73,WNW,290,3.0,9.0,90,0.00,,---,0.00,VWS V14.01,2013-03-01 05:59:00,
2013-03-01 01:03:00,33.1,30.5,29.73,West,265,4.0,9.0,90,0.00,,---,0.00,VWS V14.01,2013-03-01 06:03:00,
2013-03-01 01:04:00,33.1,30.5,29.73,WNW,284,2.0,9.0,90,0.00,,---,0.00,VWS V14.01,2013-03-01 06:04:00,
2013-03-01 01:08:00,33.1,30.5,29.73,WNW,292,3.0,7.0,90,0.00,,---,0.00,VWS V14.01,2013-03-01 06:08:00,
2013-03-01 01:09:00,33.1,30.5,29.73,WNW,291,2.0,7.0,90,0.00,,---,0.00,VWS V14.01,2013-03-01 06:09:00,
2013-03-01 01:13:00,33.1,30.5,29.74,NW,323,6.0,9.0,90,0.00,,---,0.00,VWS V14.01,2013-03-01 06:13:00,
2013-03-01 01:14:00,33.0,30.4,29.74,WSW,247,3.0,9.0,90,0.00,,---,0.00,VWS V14.01,2013-03-01 06:14:00,
2013-03-01 01:16:00,33.0,30.4,29.74,WNW,287,2.0,9.0,90,0.00,,---,0.00,VWS V14.01,2013-03-01 06:16:00,
2013-03-01 01:18:00,33.0,30.4,29.74,West,265,3.0,9.0,90,0.00,,---,0.00,VWS V14.01,2013-03-01 06:18:00,
2013-03-01 01:19:00,33.0,30.4,29.74,WNW,294,5.0,9.0,90,0.00,,---,0.00,VWS V14.01,2013-03-01 06:19:00,
2013-03-01 01:22:00,33.0,30.4,29.74,WNW,300,5.0,9.0,90,0.00,,---,0.00,VWS V14.01,2013-03-01 06:22:00,
2013-03-01 01:23:00,33.0,30.4,29.74,West,262,5.0,9.0,90,0.00,,---,0.00,VWS V14.01,2013-03-01 06:23:00,
2013-03-01 01:24:00,33.0,30.4,29.74,WNW,290,3.0,10.0,90,0.00,,---,0.00,VWS V14.01,2013-03-01 06:24:00,
2013-03-01 01:27:00,33.0,30.4,29.74,West,271,1.0,10.0,90,0.00,,---,0.00,VWS V14.01,2013-03-01 06:27:00,
2013-03-01 01:28:00,33.0,30.4,29.74,NNW,338,4.0,10.0,90,0.00,,---,0.00,VWS V14.01,2013-03-01 06:28:00,
2013-03-01 01:29:00,33.0,30.4,29.74,WNW,298,4.0,10.0,90,0.00,,---,0.00,VWS V14.01,2013-03-01 06:29:00,
2013-03-01 01:32:00,33.0,30.4,29.74,West,265,6.0,10.0,90,0.00,,---,0.00,VWS V14.01,2013-03-01 06:32:00,
2013-03-01 01:34:00,32.9,30.3,29.74,WNW,301,4.0,10.0,90,0.00,,---,0.00,VWS V14.01,2013-03-01 06:34:00,
2013-03-01 01:35:00,32.9,30.3,29.74,WNW,299,2.0,6.0,90,0.00,,---,0.00,VWS V14.01,2013-03-01 06:35:00,
2013-03-01 01:37:00,32.9,30.6,29.74,WNW,296,1.0,6.0,91,0.00,,---,0.00,VWS V14.01,2013-03-01 06:37:00,
2013-03-01 01:39:00,32.9,30.6,29.74,NW,306,2.0,6.0,91,0.00,,---,0.00,VWS V14.01,2013-03-01 06:39:00,
2013-03-01 01:40:00,32.9,30.6,29.74,WNW,294,2.0,6.0,91,0.00,,---,0.00,VWS V14.01,2013-03-01 06:40:00,
2013-03-01 01:43:00,32.8,30.5,29.74,NW,304,4.0,9.0,91,0.00,,---,0.00,VWS V14.01,2013-03-01 06:43:00,
2013-03-01 01:44:00,32.8,30.5,29.74,NW,320,3.0,10.0,91,0.00,,---,0.00,VWS V14.01,2013-03-01 06:44:00,
2013-03-01 01:45:00,32.8,30.5,29.74,WNW,286,4.0,10.0,91,0.00,,---,0.00,VWS V14.01,2013-03-01 06:45:00,
2013-03-01 01:48:00,32.8,30.5,29.74,NW,315,1.0,10.0,91,0.00,,---,0.00,VWS V14.01,2013-03-01 06:48:00,
2013-03-01 01:49:00,32.8,30.5,29.74,NW,319,3.0,10.0,91,0.00,,---,0.00,VWS V14.01,2013-03-01 06:49:00,
2013-03-01 01:50:00,32.7,30.4,29.75,WNW,289,1.0,10.0,91,0.00,,---,0.00,VWS V14.01,2013-03-01 06:50:00,
2013-03-01 01:53:00,32.7,30.4,29.75,WNW,302,5.0,10.0,91,0.00,,---,0.00,VWS V14.01,2013-03-01 06:53:00,
2013-03-01 01:55:00,32.7,30.4,29.75,NW,319,2.0,10.0,91,0.00,,---,0.00,VWS V14.01,2013-03-01 06:55:00,
2013-03-01 01:58:00,32.7,30.4,29.75,WNW,290,2.0,10.0,91,0.00,,---,0.00,VWS V14.01,2013-03-01 06:58:00,
2013-03-01 02:00:00,32.6,30.5,29.75,WNW,288,4.0,10.0,92,0.00,,---,0.00,VWS V14.01,2013-03-01 07:00:00,
2013-03-01 02:03:00,32.6,30.5,29.75,NW,307,3.0,10.0,92,0.00,,---,0.00,VWS V14.01,2013-03-01 07:03:00,
2013-03-01 02:05:00,32.6,30.5,29.74,NW,317,3.0,6.0,92,0.00,,---,0.00,VWS V14.01,2013-03-01 07:05:00,
2013-03-01 02:06:00,32.6,30.5,29.74,WNW,303,3.0,6.0,92,0.00,,---,0.00,VWS V14.01,2013-03-01 07:06:00,
2013-03-01 02:08:00,32.5,30.4,29.74,WNW,301,3.0,9.0,92,0.00,,---,0.00,VWS V14.01,2013-03-01 07:08:00,
2013-03-01 02:10:00,32.5,30.4,29.74,West,281,10.0,10.0,92,0.00,,---,0.00,VWS V14.01,2013-03-01 07:10:00,
2013-03-01 02:11:00,32.5,30.4,29.74,WNW,300,3.0,12.0,92,0.00,,---,0.00,VWS V14.01,2013-03-01 07:11:00,
2013-03-01 02:13:00,32.5,30.4,29.74,West,260,2.0,12.0,92,0.00,,---,0.00,VWS V14.01,2013-03-01 07:13:00,
2013-03-01 02:15:00,32.4,30.3,29.74,WNW,300,9.0,12.0,92,0.00,,---,0.00,VWS V14.01,2013-03-01 07:15:00,
2013-03-01 02:16:00,32.4,30.3,29.74,WNW,303,4.0,12.0,92,0.00,,---,0.00,VWS V14.01,2013-03-01 07:16:00,
2013-03-01 02:17:00,32.4,30.3,29.75,West,272,7.0,12.0,92,0.00,,---,0.00,VWS V14.01,2013-03-01 07:17:00,
2013-03-01 02:19:00,32.4,30.3,29.75,WNW,282,8.0,12.0,92,0.00,,---,0.00,VWS V14.01,2013-03-01 07:19:00,
2013-03-01 02:20:00,32.4,30.6,29.75,North,355,12.0,12.0,93,0.00,,---,0.00,VWS V14.01,2013-03-01 07:20:00,
2013-03-01 02:21:00,32.3,30.5,29.75,West,268,6.0,12.0,93,0.00,,---,0.00,VWS V14.01,2013-03-01 07:21:00,
2013-03-01 02:22:00,32.3,30.2,29.75,WNW,283,2.0,13.0,92,0.00,,---,0.00,VWS V14.01,2013-03-01 07:22:00,
2013-03-01 02:24:00,32.3,30.2,29.75,WNW,290,2.0,13.0,92,0.00,,---,0.00,VWS V14.01,2013-03-01 07:24:00,
2013-03-01 02:26:00,32.3,30.5,29.75,WNW,295,3.0,13.0,93,0.00,,---,0.00,VWS V14.01,2013-03-01 07:26:00,
2013-03-01 02:28:00,32.3,30.5,29.75,West,261,5.0,13.0,93,0.00,,---,0.00,VWS V14.01,2013-03-01 07:28:00,
2013-03-01 02:29:00,32.3,30.5,29.75,West,280,1.0,13.0,93,0.00,,---,0.00,VWS V14.01,2013-03-01 07:29:00,
2013-03-01 02:31:00,32.3,30.5,29.75,WNW,284,5.0,13.0,93,0.00,,---,0.00,VWS V14.01,2013-03-01 07:31:00,
2013-03-01 02:33:00,32.3,30.5,29.75,WNW,286,3.0,13.0,93,0.00,,---,0.00,VWS V14.01,2013-03-01 07:33:00,
2013-03-01 02:34:00,32.3,30.5,29.75,WNW,298,5.0,5.0,93,0.00,,---,0.00,VWS V14.01,2013-03-01 07:34:00,
2013-03-01 02:36:00,32.2,30.4,29.75,WNW,297,5.0,11.0,93,0.00,,---,0.00,VWS V14.01,2013-03-01 07:36:00,
2013-03-01 02:37:00,32.2,30.4,29.75,WNW,292,4.0,11.0,93,0.00,,---,0.00,VWS V14.01,2013-03-01 07:37:00,
2013-03-01 02:38:00,32.2,30.4,29.75,West,277,3.0,11.0,93,0.00,,---,0.00,VWS V14.01,2013-03-01 07:38:00,
2013-03-01 02:39:00,32.3,30.5,29.75,West,267,5.0,11.0,93,0.00,,---,0.00,VWS V14.01,2013-03-01 07:39:00,
2013-03-01 02:41:00,32.2,30.4,29.75,WSW,250,11.0,11.0,93,0.00,,---,0.00,VWS V14.01,2013-03-01 07:41:00,
2013-03-01 02:43:00,32.2,30.4,29.75,WNW,291,5.0,14.0,93,0.00,,---,0.00,VWS V14.01,2013-03-01 07:43:00,
2013-03-01 02:44:00,32.2,30.4,29.75,West,278,3.0,14.0,93,0.00,,---,0.00,VWS V14.01,2013-03-01 07:44:00,
2013-03-01 02:46:00,32.2,30.4,29.75,NW,315,2.0,14.0,93,0.00,,---,0.00,VWS V14.01,2013-03-01 07:46:00,
2013-03-01 02:48:00,32.2,30.4,29.75,WNW,296,3.0,14.0,93,0.00,,---,0.00,VWS V14.01,2013-03-01 07:48:00,
2013-03-01 02:49:00,32.2,30.4,29.75,NW,314,10.0,14.0,93,0.00,,---,0.00,VWS V14.01,2013-03-01 07:49:00,
2013-03-01 02:50:00,32.2,30.4,29.75,NW,304,8.0,14.0,93,0.00,,---,0.00,VWS V14.01,2013-03-01 07:50:00,
2013-03-01 02:52:00,32.1,30.3,29.75,WNW,290,3.0,14.0,93,0.00,,---,0.00,VWS V14.01,2013-03-01 07:52:00,
2013-03-01 02:53:00,32.2,30.4,29.75,West,279,4.0,14.0,93,0.00,,---,0.00,VWS V14.01,2013-03-01 07:53:00,
2013-03-01 02:54:00,32.1,30.3,29.75,NW,311,3.0,14.0,93,0.00,,---,0.00,VWS V14.01,2013-03-01 07:54:00,
2013-03-01 02:55:00,32.1,30.3,29.75,WNW,288,1.0,14.0,93,0.00,,---,0.00,VWS V14.01,2013-03-01 07:55:00,
2013-03-01 02:57:00,32.1,30.3,29.75,West,269,3.0,14.0,93,0.00,,---,0.00,VWS V14.01,2013-03-01 07:57:00,
2013-03-01 02:58:00,32.1,30.3,29.75,North,355,7.0,14.0,93,0.00,,---,0.00,VWS V14.01,2013-03-01 07:58:00,
2013-03-01 02:59:00,32.1,30.3,29.75,West,279,5.0,14.0,93,0.00,,---,0.00,VWS V14.01,2013-03-01 07:59:00,
2013-03-01 03:00:00,32.1,30.3,29.75,NW,317,0.0,14.0,93,0.00,,---,0.00,VWS V14.01,2013-03-01 08:00:00,
2013-03-01 03:02:00,32.1,30.6,29.75,WNW,286,3.0,14.0,94,0.00,,---,0.00,VWS V14.01,2013-03-01 08:02:00,
2013-03-01 03:03:00,32.1,30.6,29.75,West,267,3.0,14.0,94,0.00,,---,0.00,VWS V14.01,2013-03-01 08:03:00,
2013-03-01 03:04:00,32.1,30.6,29.75,WNW,302,5.0,5.0,94,0.00,,---,0.00,VWS V14.01,2013-03-01 08:04:00,
2013-03-01 03:05:00,32.1,30.6,29.75,WNW,289,4.0,5.0,94,0.00,,---,0.00,VWS V14.01,2013-03-01 08:05:00,
2013-03-01 03:08:00,32.1,30.6,29.75,WNW,286,3.0,6.0,94,0.00,,---,0.00,VWS V14.01,2013-03-01 08:08:00,
2013-03-01 03:11:00,32.1,30.6,29.75,WNW,292,10.0,10.0,94,0.00,,---,0.00,VWS V14.01,2013-03-01 08:11:00,
2013-03-01 03:13:00,32.1,30.6,29.75,WNW,296,4.0,10.0,94,0.00,,---,0.00,VWS V14.01,2013-03-01 08:13:00,
2013-03-01 03:16:00,32.1,30.6,29.75,NNW,333,5.0,10.0,94,0.00,,---,0.00,VWS V14.01,2013-03-01 08:16:00,
2013-03-01 03:18:00,32.1,30.6,29.76,WNW,303,3.0,10.0,94,0.00,,---,0.00,VWS V14.01,2013-03-01 08:18:00,
2013-03-01 03:19:00,32.1,30.6,29.76,SW,233,1.0,10.0,94,0.00,,---,0.00,VWS V14.01,2013-03-01 08:19:00,
2013-03-01 03:21:00,32.1,30.6,29.76,NNW,328,0.0,10.0,94,0.00,,---,0.00,VWS V14.01,2013-03-01 08:21:00,
2013-03-01 03:22:00,32.1,30.6,29.76,WNW,303,2.0,10.0,94,0.00,,---,0.00,VWS V14.01,2013-03-01 08:22:00,
2013-03-01 03:24:00,32.1,30.6,29.76,WNW,294,3.0,10.0,94,0.00,,---,0.00,VWS V14.01,2013-03-01 08:24:00,
2013-03-01 03:26:00,32.1,30.6,29.76,WNW,292,2.0,10.0,94,0.00,,---,0.00,VWS V14.01,2013-03-01 08:26:00,
2013-03-01 03:27:00,32.1,30.6,29.76,North,350,2.0,10.0,94,0.00,,---,0.00,VWS V14.01,2013-03-01 08:27:00,
2013-03-01 03:29:00,32.1,30.6,29.76,WSW,254,3.0,10.0,94,0.00,,---,0.00,VWS V14.01,2013-03-01 08:29:00,
2013-03-01 03:30:00,32.1,30.6,29.76,West,271,2.0,10.0,94,0.00,,---,0.00,VWS V14.01,2013-03-01 08:30:00,
2013-03-01 03:32:00,32.1,30.6,29.76,NW,306,2.0,10.0,94,0.00,,---,0.00,VWS V14.01,2013-03-01 08:32:00,
2013-03-01 03:35:00,32.1,30.6,29.76,WNW,298,2.0,5.0,94,0.00,,---,0.00,VWS V14.01,2013-03-01 08:35:00,
2013-03-01 03:37:00,32.1,30.6,29.76,WSW,253,3.0,5.0,94,0.00,,---,0.00,VWS V14.01,2013-03-01 08:37:00,
2013-03-01 03:38:00,32.1,30.6,29.76,NW,308,4.0,5.0,94,0.00,,---,0.00,VWS V14.01,2013-03-01 08:38:00,
2013-03-01 03:40:00,32.1,30.6,29.76,West,265,1.0,9.0,94,0.00,,---,0.00,VWS V14.01,2013-03-01 08:40:00,
2013-03-01 03:42:00,32.1,30.6,29.76,WNW,292,1.0,9.0,94,0.00,,---,0.00,VWS V14.01,2013-03-01 08:42:00,
2013-03-01 03:43:00,32.1,30.6,29.76,West,259,5.0,9.0,94,0.00,,---,0.00,VWS V14.01,2013-03-01 08:43:00,
2013-03-01 03:46:00,32.1,30.6,29.76,WNW,292,2.0,9.0,94,0.00,,---,0.00,VWS V14.01,2013-03-01 08:46:00,
2013-03-01 03:47:00,32.1,30.6,29.76,West,262,6.0,9.0,94,0.00,,---,0.00,VWS V14.01,2013-03-01 08:47:00,
2013-03-01 03:48:00,32.1,30.6,29.76,NW,321,3.0,9.0,94,0.00,,---,0.00,VWS V14.01,2013-03-01 08:48:00,
2013-03-01 03:51:00,32.1,30.6,29.76,WNW,294,3.0,9.0,94,0.00,,---,0.00,VWS V14.01,2013-03-01 08:51:00,
2013-03-01 03:52:00,32.1,30.6,29.76,West,281,3.0,9.0,94,0.00,,---,0.00,VWS V14.01,2013-03-01 08:52:00,
2013-03-01 03:53:00,32.1,30.6,29.76,West,272,6.0,9.0,94,0.00,,---,0.00,VWS V14.01,2013-03-01 08:53:00,
2013-03-01 03:56:00,32.1,30.6,29.76,WNW,296,3.0,10.0,94,0.00,,---,0.00,VWS V14.01,2013-03-01 08:56:00,
2013-03-01 03:58:00,32.1,30.6,29.76,WNW,288,2.0,10.0,94,0.00,,---,0.00,VWS V14.01,2013-03-01 08:58:00,
2013-03-01 04:01:00,32.1,30.3,29.76,WNW,296,2.0,10.0,93,0.00,,---,0.00,VWS V14.01,2013-03-01 09:01:00,
2013-03-01 04:03:00,32.1,30.3,29.76,WNW,299,6.0,10.0,93,0.00,,---,0.00,VWS V14.01,2013-03-01 09:03:00,
2013-03-01 04:04:00,32.1,30.3,29.76,WNW,289,3.0,3.0,93,0.00,,---,0.00,VWS V14.01,2013-03-01 09:04:00,
2013-03-01 04:06:00,32.1,30.3,29.76,West,275,5.0,6.0,93,0.00,,---,0.00,VWS V14.01,2013-03-01 09:06:00,
2013-03-01 04:08:00,32.1,30.3,29.76,WNW,296,3.0,6.0,93,0.00,,---,0.00,VWS V14.01,2013-03-01 09:08:00,
2013-03-01 04:09:00,32.1,30.3,29.76,NW,304,4.0,6.0,93,0.00,,---,0.00,VWS V14.01,2013-03-01 09:09:00,
2013-03-01 04:11:00,32.1,30.3,29.76,WNW,286,5.0,6.0,93,0.00,,---,0.00,VWS V14.01,2013-03-01 09:11:00,
2013-03-01 04:12:00,32.0,30.2,29.76,WNW,290,3.0,10.0,93,0.00,,---,0.00,VWS V14.01,2013-03-01 09:12:00,
2013-03-01 04:13:00,32.0,30.2,29.76,WNW,300,3.0,10.0,93,0.00,,---,0.00,VWS V14.01,2013-03-01 09:13:00,
2013-03-01 04:14:00,32.0,30.2,29.76,NW,309,4.0,10.0,93,0.00,,---,0.00,VWS V14.01,2013-03-01 09:14:00,
2013-03-01 04:16:00,32.0,30.2,29.76,NW,310,5.0,10.0,93,0.00,,---,0.00,VWS V14.01,2013-03-01 09:16:00,
2013-03-01 04:17:00,32.0,30.2,29.76,West,281,3.0,10.0,93,0.00,,---,0.00,VWS V14.01,2013-03-01 09:17:00,
2013-03-01 04:19:00,32.0,30.2,29.76,WNW,296,2.0,10.0,93,0.00,,---,0.00,VWS V14.01,2013-03-01 09:19:00,
2013-03-01 04:22:00,32.0,30.2,29.76,NW,309,3.0,10.0,93,0.00,,---,0.00,VWS V14.01,2013-03-01 09:22:00,
2013-03-01 04:23:00,32.0,30.2,29.76,WNW,302,2.0,10.0,93,0.00,,---,0.00,VWS V14.01,2013-03-01 09:23:00,
2013-03-01 04:24:00,32.0,30.2,29.76,WNW,300,2.0,10.0,93,0.00,,---,0.00,VWS V14.01,2013-03-01 09:24:00,
2013-03-01 04:27:00,31.9,30.1,29.76,NW,305,4.0,10.0,93,0.00,,---,0.00,VWS V14.01,2013-03-01 09:27:00,
2013-03-01 04:29:00,32.0,30.2,29.76,NW,306,6.0,10.0,93,0.00,,---,0.00,VWS V14.01,2013-03-01 09:29:00,
2013-03-01 04:30:00,31.9,30.1,29.76,WNW,290,3.0,10.0,93,0.00,,---,0.00,VWS V14.01,2013-03-01 09:30:00,
2013-03-01 04:33:00,31.9,30.1,29.76,WNW,296,5.0,10.0,93,0.00,,---,0.00,VWS V14.01,2013-03-01 09:33:00,
2013-03-01 04:34:00,31.9,30.1,29.76,NW,305,2.0,2.0,93,0.00,,---,0.00,VWS V14.01,2013-03-01 09:34:00,
2013-03-01 04:35:00,31.9,30.1,29.76,West,265,3.0,4.0,93,0.00,,---,0.00,VWS V14.01,2013-03-01 09:35:00,
2013-03-01 04:38:00,31.9,30.1,29.76,NW,304,3.0,7.0,93,0.00,,---,0.00,VWS V14.01,2013-03-01 09:38:00,
2013-03-01 04:40:00,31.9,30.1,29.76,WNW,284,2.0,8.0,93,0.00,,---,0.00,VWS V14.01,2013-03-01 09:40:00,
2013-03-01 04:43:00,31.9,30.1,29.76,WNW,301,3.0,8.0,93,0.00,,---,0.00,VWS V14.01,2013-03-01 09:43:00,
2013-03-01 04:45:00,31.9,30.1,29.76,West,281,4.0,8.0,93,0.00,,---,0.00,VWS V14.01,2013-03-01 09:45:00,
2013-03-01 04:48:00,31.9,30.1,29.76,WNW,303,2.0,8.0,93,0.00,,---,0.00,VWS V14.01,2013-03-01 09:48:00,
2013-03-01 04:50:00,31.9,30.1,29.76,NW,306,2.0,8.0,93,0.00,,---,0.00,VWS V14.01,2013-03-01 09:50:00,
2013-03-01 04:51:00,31.9,30.1,29.76,NW,313,2.0,8.0,93,0.00,,---,0.00,VWS V14.01,2013-03-01 09:51:00,
2013-03-01 04:53:00,31.9,30.1,29.76,WNW,285,3.0,8.0,93,0.00,,---,0.00,VWS V14.01,2013-03-01 09:53:00,
2013-03-01 04:55:00,31.9,30.1,29.76,NW,319,1.0,8.0,93,0.00,,---,0.00,VWS V14.01,2013-03-01 09:55:00,
2013-03-01 04:56:00,31.9,30.1,29.76,NW,325,3.0,8.0,93,0.00,,---,0.00,VWS V14.01,2013-03-01 09:56:00,
2013-03-01 04:58:00,31.9,30.1,29.76,WNW,296,4.0,8.0,93,0.00,,---,0.00,VWS V14.01,2013-03-01 09:58:00,
2013-03-01 05:00:00,31.9,30.1,29.76,NW,319,2.0,8.0,93,0.00,,---,0.00,VWS V14.01,2013-03-01 10:00:00,
2013-03-01 05:01:00,31.9,30.1,29.76,NW,309,4.0,8.0,93,0.00,,---,0.00,VWS V14.01,2013-03-01 10:01:00,
2013-03-01 05:02:00,31.9,30.1,29.76,WNW,302,5.0,8.0,93,0.00,,---,0.00,VWS V14.01,2013-03-01 10:02:00,
2013-03-01 05:04:00,31.9,30.1,29.76,NW,314,4.0,7.0,93,0.00,,---,0.00,VWS V14.01,2013-03-01 10:04:00,
2013-03-01 05:05:00,31.9,30.1,29.77,WNW,299,3.0,7.0,93,0.00,,---,0.00,VWS V14.01,2013-03-01 10:05:00,
2013-03-01 05:06:00,31.9,30.1,29.76,WNW,297,5.0,7.0,93,0.00,,---,0.00,VWS V14.01,2013-03-01 10:06:00,
2013-03-01 05:07:00,31.9,30.1,29.77,NW,306,1.0,7.0,93,0.00,,---,0.00,VWS V14.01,2013-03-01 10:07:00,
2013-03-01 05:10:00,31.9,30.1,29.76,NW,309,3.0,7.0,93,0.00,,---,0.00,VWS V14.01,2013-03-01 10:10:00,
2013-03-01 05:11:00,31.9,30.1,29.76,NW,304,4.0,7.0,93,0.00,,---,0.00,VWS V14.01,2013-03-01 10:11:00,
2013-03-01 05:12:00,31.9,30.1,29.76,WNW,297,3.0,7.0,93,0.00,,---,0.00,VWS V14.01,2013-03-01 10:12:00,
2013-03-01 05:13:00,31.9,30.1,29.76,WNW,302,2.0,7.0,93,0.00,,---,0.00,VWS V14.01,2013-03-01 10:13:00,
2013-03-01 05:16:00,31.9,30.1,29.76,NW,304,5.0,7.0,93,0.00,,---,0.00,VWS V14.01,2013-03-01 10:16:00,
2013-03-01 05:17:00,32.0,29.9,29.77,NW,313,5.0,7.0,92,0.00,,---,0.00,VWS V14.01,2013-03-01 10:17:00,
2013-03-01 05:18:00,32.0,29.9,29.77,NW,304,4.0,7.0,92,0.00,,---,0.00,VWS V14.01,2013-03-01 10:18:00,
2013-03-01 05:21:00,32.0,29.9,29.77,NW,319,1.0,7.0,92,0.00,,---,0.00,VWS V14.01,2013-03-01 10:21:00,
2013-03-01 05:23:00,31.9,29.8,29.77,WNW,303,3.0,7.0,92,0.00,,---,0.00,VWS V14.01,2013-03-01 10:23:00,
2013-03-01 05:24:00,32.0,29.9,29.77,WNW,287,2.0,7.0,92,0.00,,---,0.00,VWS V14.01,2013-03-01 10:24:00,
2013-03-01 05:26:00,32.0,29.9,29.77,NW,319,3.0,7.0,92,0.00,,---,0.00,VWS V14.01,2013-03-01 10:26:00,
2013-03-01 05:27:00,31.9,29.8,29.77,WNW,300,4.0,10.0,92,0.00,,---,0.00,VWS V14.01,2013-03-01 10:27:00,
2013-03-01 05:28:00,32.0,29.9,29.77,NW,313,5.0,10.0,92,0.00,,---,0.00,VWS V14.01,2013-03-01 10:28:00,
2013-03-01 05:29:00,32.0,29.9,29.77,NNW,328,3.0,10.0,92,0.00,,---,0.00,VWS V14.01,2013-03-01 10:29:00,
2013-03-01 05:31:00,32.0,29.9,29.77,West,277,5.0,10.0,92,0.00,,---,0.00,VWS V14.01,2013-03-01 10:31:00,
2013-03-01 05:32:00,31.9,29.8,29.77,West,269,4.0,10.0,92,0.00,,---,0.00,VWS V14.01,2013-03-01 10:32:00,
2013-03-01 05:33:00,32.0,29.9,29.77,WNW,283,3.0,10.0,92,0.00,,---,0.00,VWS V14.01,2013-03-01 10:33:00,
2013-03-01 05:35:00,32.0,29.9,29.77,WNW,298,2.0,2.0,92,0.00,,---,0.00,VWS V14.01,2013-03-01 10:35:00,
2013-03-01 05:36:00,32.0,29.9,29.77,WNW,298,1.0,2.0,92,0.00,,---,0.00,VWS V14.01,2013-03-01 10:36:00,
2013-03-01 05:38:00,32.0,29.9,29.77,WNW,286,2.0,3.0,92,0.00,,---,0.00,VWS V14.01,2013-03-01 10:38:00,
2013-03-01 05:40:00,32.0,29.9,29.77,West,281,4.0,4.0,92,0.00,,---,0.00,VWS V14.01,2013-03-01 10:40:00,
2013-03-01 05:42:00,32.0,29.9,29.77,West,276,3.0,4.0,92,0.00,,---,0.00,VWS V14.01,2013-03-01 10:42:00,
2013-03-01 05:44:00,32.0,29.9,29.77,NW,322,0.0,4.0,92,0.00,,---,0.00,VWS V14.01,2013-03-01 10:44:00,
2013-03-01 05:45:00,32.0,29.9,29.77,West,281,2.0,4.0,92,0.00,,---,0.00,VWS V14.01,2013-03-01 10:45:00,
2013-03-01 05:48:00,31.9,29.8,29.77,WNW,282,3.0,6.0,92,0.00,,---,0.00,VWS V14.01,2013-03-01 10:48:00,
2013-03-01 05:49:00,32.0,29.9,29.77,WNW,284,1.0,6.0,92,0.00,,---,0.00,VWS V14.01,2013-03-01 10:49:00,
2013-03-01 05:50:00,32.0,29.9,29.77,West,272,1.0,6.0,92,0.00,,---,0.00,VWS V14.01,2013-03-01 10:50:00,
2013-03-01 05:53:00,31.9,29.8,29.77,WNW,290,4.0,6.0,92,0.00,,---,0.00,VWS V14.01,2013-03-01 10:53:00,
2013-03-01 05:54:00,31.9,29.8,29.77,West,279,5.0,6.0,92,0.00,,---,0.00,VWS V14.01,2013-03-01 10:54:00,
2013-03-01 05:55:00,31.9,29.8,29.77,WNW,293,3.0,9.0,92,0.00,,---,0.00,VWS V14.01,2013-03-01 10:55:00,
2013-03-01 05:56:00,31.9,29.8,29.77,WNW,292,0.0,9.0,92,0.00,,---,0.00,VWS V14.01,2013-03-01 10:56:00,
2013-03-01 05:59:00,31.9,29.8,29.77,NW,316,3.0,9.0,92,0.00,,---,0.00,VWS V14.01,2013-03-01 10:59:00,
2013-03-01 06:00:00,31.9,29.8,29.77,NW,309,2.0,9.0,92,0.00,,---,0.00,VWS V14.01,2013-03-01 11:00:00,
2013-03-01 06:02:00,31.9,29.8,29.77,West,269,4.0,9.0,92,0.00,,---,0.00,VWS V14.01,2013-03-01 11:02:00,
2013-03-01 06:04:00,31.9,29.8,29.77,West,274,2.0,9.0,92,0.00,,---,0.00,VWS V14.01,2013-03-01 11:04:00,
2013-03-01 06:05:00,31.9,29.8,29.77,WNW,284,1.0,6.0,92,0.00,,---,0.00,VWS V14.01,2013-03-01 11:05:00,
2013-03-01 06:07:00,31.9,29.8,29.77,WNW,290,2.0,6.0,92,0.00,,---,0.00,VWS V14.01,2013-03-01 11:07:00,
2013-03-01 06:09:00,31.9,29.8,29.77,NW,320,2.0,6.0,92,0.00,,---,0.00,VWS V14.01,2013-03-01 11:09:00,
2013-03-01 06:10:00,31.9,29.8,29.77,NW,320,1.0,6.0,92,0.00,,---,0.00,VWS V14.01,2013-03-01 11:10:00,
2013-03-01 06:12:00,31.9,29.8,29.78,WNW,290,1.0,6.0,92,0.00,,---,0.00,VWS V14.01,2013-03-01 11:12:00,
2013-03-01 06:15:00,31.9,29.8,29.77,NW,324,0.0,6.0,92,0.00,,---,0.00,VWS V14.01,2013-03-01 11:15:00,
2013-03-01 06:16:00,31.9,29.8,29.78,WNW,294,3.0,6.0,92,0.00,,---,0.00,VWS V14.01,2013-03-01 11:16:00,
2013-03-01 06:17:00,31.9,29.8,29.78,NW,319,2.0,6.0,92,0.00,,---,0.00,VWS V14.01,2013-03-01 11:17:00,
2013-03-01 06:18:00,31.9,29.8,29.78,WNW,292,2.0,6.0,92,0.00,,---,0.00,VWS V14.01,2013-03-01 11:18:00,
2013-03-01 06:20:00,31.9,29.8,29.78,WNW,295,2.0,6.0,92,0.00,,---,0.00,VWS V14.01,2013-03-01 11:20:00,
2013-03-01 06:21:00,31.9,29.8,29.78,West,273,3.0,6.0,92,0.00,,---,0.00,VWS V14.01,2013-03-01 11:21:00,
2013-03-01 06:22:00,31.9,29.8,29.78,WNW,293,3.0,6.0,92,0.00,,---,0.00,VWS V14.01,2013-03-01 11:22:00,
2013-03-01 06:23:00,31.9,29.8,29.78,WNW,294,3.0,6.0,92,0.00,,---,0.00,VWS V14.01,2013-03-01 11:23:00,
2013-03-01 06:26:00,31.9,29.8,29.78,WNW,287,5.0,6.0,92,0.00,,---,0.00,VWS V14.01,2013-03-01 11:26:00,
2013-03-01 06:28:00,31.9,29.8,29.78,NW,318,2.0,7.0,92,0.00,,---,0.00,VWS V14.01,2013-03-01 11:28:00,
2013-03-01 06:31:00,31.9,29.8,29.78,WNW,303,2.0,7.0,92,0.00,,---,0.00,VWS V14.01,2013-03-01 11:31:00,
2013-03-01 06:33:00,31.9,29.8,29.78,West,276,0.0,7.0,92,0.00,,---,0.00,VWS V14.01,2013-03-01 11:33:00,
2013-03-01 06:34:00,31.9,29.8,29.78,NNW,327,6.0,7.0,92,0.00,,---,0.00,VWS V14.01,2013-03-01 11:34:00,
2013-03-01 06:36:00,31.9,29.8,29.78,NW,319,6.0,7.0,92,0.00,,---,0.00,VWS V14.01,2013-03-01 11:36:00,
2013-03-01 06:37:00,31.9,29.6,29.78,NW,321,1.0,7.0,91,0.00,,---,0.00,VWS V14.01,2013-03-01 11:37:00,
2013-03-01 06:38:00,31.9,29.6,29.78,NW,305,0.0,7.0,91,0.00,,---,0.00,VWS V14.01,2013-03-01 11:38:00,
2013-03-01 06:39:00,31.9,29.6,29.78,NW,306,2.0,7.0,91,0.00,,---,0.00,VWS V14.01,2013-03-01 11:39:00,
2013-03-01 06:41:00,31.9,29.6,29.78,WNW,294,3.0,7.0,91,0.00,,---,0.00,VWS V14.01,2013-03-01 11:41:00,
2013-03-01 06:42:00,31.9,29.6,29.78,WNW,302,1.0,9.0,91,0.00,,---,0.00,VWS V14.01,2013-03-01 11:42:00,
2013-03-01 06:43:00,31.9,29.6,29.78,NW,313,2.0,9.0,91,0.00,,---,0.00,VWS V14.01,2013-03-01 11:43:00,
2013-03-01 06:44:00,31.9,29.6,29.78,WNW,294,4.0,9.0,91,0.00,,---,0.00,VWS V14.01,2013-03-01 11:44:00,
2013-03-01 06:46:00,31.9,29.6,29.78,NW,313,2.0,9.0,91,0.00,,---,0.00,VWS V14.01,2013-03-01 11:46:00,
2013-03-01 06:47:00,31.9,29.6,29.78,NW,306,4.0,9.0,91,0.00,,---,0.00,VWS V14.01,2013-03-01 11:47:00,
2013-03-01 06:48:00,32.0,29.7,29.78,NNW,333,2.0,9.0,91,0.00,,---,0.00,VWS V14.01,2013-03-01 11:48:00,
2013-03-01 06:49:00,31.9,29.6,29.78,NW,304,2.0,9.0,91,0.00,,---,0.00,VWS V14.01,2013-03-01 11:49:00,
2013-03-01 06:51:00,31.9,29.6,29.78,WNW,298,4.0,9.0,91,0.00,,---,0.00,VWS V14.01,2013-03-01 11:51:00,
2013-03-01 06:53:00,32.0,29.7,29.78,WNW,300,2.0,9.0,91,0.00,,---,0.00,VWS V14.01,2013-03-01 11:53:00,
2013-03-01 06:54:00,32.0,29.7,29.78,West,281,4.0,9.0,91,0.00,,---,0.00,VWS V14.01,2013-03-01 11:54:00,
2013-03-01 06:56:00,32.0,29.7,29.78,WNW,300,2.0,9.0,91,0.00,,---,0.00,VWS V14.01,2013-03-01 11:56:00,
2013-03-01 06:59:00,32.0,29.7,29.79,WNW,291,1.0,9.0,91,0.00,,---,0.00,VWS V14.01,2013-03-01 11:59:00,
2013-03-01 07:00:00,32.0,29.7,29.79,WNW,292,2.0,9.0,91,0.00,,---,0.00,VWS V14.01,2013-03-01 12:00:00,
2013-03-01 07:01:00,32.0,29.7,29.79,WNW,299,2.0,9.0,91,0.00,,---,0.00,VWS V14.01,2013-03-01 12:01:00,
2013-03-01 07:04:00,32.0,29.7,29.79,West,279,3.0,9.0,91,0.00,,---,0.00,VWS V14.01,2013-03-01 12:04:00,
2013-03-01 07:05:00,32.0,29.7,29.79,WNW,290,1.0,2.0,91,0.00,,---,0.00,VWS V14.01,2013-03-01 12:05:00,
2013-03-01 07:07:00,32.0,29.7,29.79,WNW,288,1.0,7.0,91,0.00,,---,0.00,VWS V14.01,2013-03-01 12:07:00,
2013-03-01 07:09:00,32.0,29.4,29.79,WNW,290,1.0,7.0,90,0.00,,---,0.00,VWS V14.01,2013-03-01 12:09:00,
2013-03-01 07:10:00,32.0,29.4,29.79,NNW,330,2.0,7.0,90,0.00,,---,0.00,VWS V14.01,2013-03-01 12:10:00,
2013-03-01 07:12:00,32.0,29.4,29.79,West,279,4.0,7.0,90,0.00,,---,0.00,VWS V14.01,2013-03-01 12:12:00,
2013-03-01 07:14:00,32.0,29.4,29.79,NNW,338,5.0,7.0,90,0.00,,---,0.00,VWS V14.01,2013-03-01 12:14:00,
2013-03-01 07:15:00,32.0,29.4,29.79,NW,306,3.0,7.0,90,0.00,,---,0.00,VWS V14.01,2013-03-01 12:15:00,
2013-03-01 07:17:00,32.1,29.5,29.79,WNW,303,5.0,7.0,90,0.00,,---,0.00,VWS V14.01,2013-03-01 12:17:00,
2013-03-01 07:19:00,32.1,29.5,29.80,NW,306,4.0,8.0,90,0.00,,---,0.00,VWS V14.01,2013-03-01 12:19:00,
2013-03-01 07:20:00,32.1,29.5,29.79,NNW,327,0.0,8.0,90,0.00,,---,0.00,VWS V14.01,2013-03-01 12:20:00,
2013-03-01 07:22:00,32.1,29.5,29.80,WNW,296,3.0,8.0,90,0.00,,---,0.00,VWS V14.01,2013-03-01 12:22:00,
2013-03-01 07:24:00,32.1,29.5,29.80,West,281,2.0,8.0,90,0.00,,---,0.00,VWS V14.01,2013-03-01 12:24:00,
2013-03-01 07:25:00,32.1,29.5,29.80,West,281,4.0,8.0,90,0.00,,---,0.00,VWS V14.01,2013-03-01 12:25:00,
2013-03-01 07:26:00,32.1,29.5,29.80,WNW,292,2.0,8.0,90,0.00,,---,0.00,VWS V14.01,2013-03-01 12:26:00,
2013-03-01 07:27:00,32.1,29.5,29.80,WNW,302,2.0,8.0,90,0.00,,---,0.00,VWS V14.01,2013-03-01 12:27:00,
2013-03-01 07:29:00,32.1,29.5,29.80,West,281,2.0,8.0,90,0.00,,---,0.00,VWS V14.01,2013-03-01 12:29:00,
2013-03-01 07:30:00,32.1,29.5,29.81,West,276,2.0,8.0,90,0.00,,---,0.00,VWS V14.01,2013-03-01 12:30:00,
2013-03-01 07:31:00,32.1,29.5,29.80,NW,315,2.0,8.0,90,0.00,,---,0.00,VWS V14.01,2013-03-01 12:31:00,
2013-03-01 07:33:00,32.1,29.5,29.80,WNW,287,0.0,8.0,90,0.00,,---,0.00,VWS V14.01,2013-03-01 12:33:00,
2013-03-01 07:34:00,32.2,29.6,29.80,West,264,0.0,2.0,90,0.00,,---,0.00,VWS V14.01,2013-03-01 12:34:00,
2013-03-01 07:35:00,32.2,29.6,29.81,West,272,0.0,2.0,90,0.00,,---,0.00,VWS V14.01,2013-03-01 12:35:00,
2013-03-01 07:36:00,32.2,29.6,29.81,NW,306,3.0,6.0,90,0.00,,---,0.00,VWS V14.01,2013-03-01 12:36:00,
2013-03-01 07:38:00,32.2,29.6,29.81,WNW,298,2.0,6.0,90,0.00,,---,0.00,VWS V14.01,2013-03-01 12:38:00,
2013-03-01 07:40:00,32.2,29.6,29.80,WNW,296,1.0,7.0,90,0.00,,---,0.00,VWS V14.01,2013-03-01 12:40:00,
2013-03-01 07:42:00,32.2,29.6,29.80,NW,310,3.0,7.0,90,0.00,,---,0.00,VWS V14.01,2013-03-01 12:42:00,
2013-03-01 07:43:00,32.3,29.7,29.80,West,269,1.0,7.0,90,0.00,,---,0.00,VWS V14.01,2013-03-01 12:43:00,
2013-03-01 07:45:00,32.3,29.7,29.81,WNW,296,3.0,7.0,90,0.00,,---,0.00,VWS V14.01,2013-03-01 12:45:00,
2013-03-01 07:47:00,32.3,29.7,29.81,NW,310,3.0,7.0,90,0.00,,---,0.00,VWS V14.01,2013-03-01 12:47:00,
2013-03-01 07:48:00,32.3,29.7,29.81,West,271,4.0,7.0,90,0.00,,---,0.00,VWS V14.01,2013-03-01 12:48:00,
2013-03-01 07:50:00,32.3,29.7,29.81,WNW,295,3.0,7.0,90,0.00,,---,0.00,VWS V14.01,2013-03-01 12:50:00,
2013-03-01 07:52:00,32.4,29.8,29.81,West,267,4.0,7.0,90,0.00,,---,0.00,VWS V14.01,2013-03-01 12:52:00,
2013-03-01 07:53:00,32.4,29.8,29.81,West,272,6.0,9.0,90,0.00,,---,0.00,VWS V14.01,2013-03-01 12:53:00,
2013-03-01 07:56:00,32.4,29.5,29.81,NW,315,2.0,9.0,89,0.00,,---,0.00,VWS V14.01,2013-03-01 12:56:00,
2013-03-01 07:57:00,32.4,29.5,29.81,WNW,292,2.0,9.0,89,0.00,,---,0.00,VWS V14.01,2013-03-01 12:57:00,
2013-03-01 07:58:00,32.4,29.5,29.81,West,273,3.0,9.0,89,0.00,,---,0.00,VWS V14.01,2013-03-01 12:58:00,
2013-03-01 08:01:00,32.4,29.5,29.81,NW,306,3.0,9.0,89,0.00,,---,0.00,VWS V14.01,2013-03-01 13:01:00,
2013-03-01 08:02:00,32.5,29.6,29.81,West,262,5.0,9.0,89,0.00,,---,0.00,VWS V14.01,2013-03-01 13:02:00,
2013-03-01 08:03:00,32.5,29.6,29.81,NW,313,1.0,9.0,89,0.00,,---,0.00,VWS V14.01,2013-03-01 13:03:00,
2013-03-01 08:06:00,32.5,29.6,29.81,West,271,2.0,5.0,89,0.00,,---,0.00,VWS V14.01,2013-03-01 13:06:00,
2013-03-01 08:08:00,32.5,29.6,29.81,West,275,5.0,5.0,89,0.00,,---,0.00,VWS V14.01,2013-03-01 13:08:00,
2013-03-01 08:09:00,32.5,29.6,29.81,West,280,5.0,7.0,89,0.00,,---,0.00,VWS V14.01,2013-03-01 13:09:00,
2013-03-01 08:11:00,32.5,29.6,29.81,West,276,5.0,7.0,89,0.00,,---,0.00,VWS V14.01,2013-03-01 13:11:00,
2013-03-01 08:13:00,32.5,29.6,29.81,WNW,284,3.0,7.0,89,0.00,,---,0.00,VWS V14.01,2013-03-01 13:13:00,
2013-03-01 08:14:00,32.5,29.6,29.82,NNW,327,3.0,7.0,89,0.00,,---,0.00,VWS V14.01,2013-03-01 13:14:00,
2013-03-01 08:16:00,32.6,29.7,29.82,WNW,295,1.0,7.0,89,0.00,,---,0.00,VWS V14.01,2013-03-01 13:16:00,
2013-03-01 08:18:00,32.7,29.8,29.82,WNW,294,3.0,8.0,89,0.00,,---,0.00,VWS V14.01,2013-03-01 13:18:00,
2013-03-01 08:19:00,32.7,29.8,29.82,WNW,292,3.0,8.0,89,0.00,,---,0.00,VWS V14.01,2013-03-01 13:19:00,
2013-03-01 08:21:00,32.7,29.5,29.82,WNW,285,3.0,8.0,88,0.00,,---,0.00,VWS V14.01,2013-03-01 13:21:00,
2013-03-01 08:23:00,32.8,29.6,29.82,WNW,294,4.0,8.0,88,0.00,,---,0.00,VWS V14.01,2013-03-01 13:23:00,
2013-03-01 08:24:00,32.8,29.6,29.82,WNW,291,4.0,8.0,88,0.00,,---,0.00,VWS V14.01,2013-03-01 13:24:00,
2013-03-01 08:26:00,32.8,29.6,29.82,WNW,283,5.0,8.0,88,0.00,,---,0.00,VWS V14.01,2013-03-01 13:26:00,
2013-03-01 08:29:00,32.8,29.6,29.82,WNW,296,5.0,8.0,88,0.00,,---,0.00,VWS V14.01,2013-03-01 13:29:00,
2013-03-01 08:30:00,32.7,29.5,29.82,West,275,6.0,8.0,88,0.00,,---,0.00,VWS V14.01,2013-03-01 13:30:00,
2013-03-01 08:31:00,32.7,29.5,29.82,West,262,5.0,8.0,88,0.00,,---,0.00,VWS V14.01,2013-03-01 13:31:00,
2013-03-01 08:34:00,32.7,29.5,29.83,West,264,3.0,3.0,88,0.00,,---,0.00,VWS V14.01,2013-03-01 13:34:00,
2013-03-01 08:35:00,32.7,29.5,29.83,West,265,2.0,5.0,88,0.00,,---,0.00,VWS V14.01,2013-03-01 13:35:00,
2013-03-01 08:37:00,32.6,29.5,29.83,West,281,2.0,5.0,88,0.00,,---,0.00,VWS V14.01,2013-03-01 13:37:00,
2013-03-01 08:39:00,32.6,29.5,29.83,WNW,294,3.0,5.0,88,0.00,,---,0.00,VWS V14.01,2013-03-01 13:39:00,
2013-03-01 08:40:00,32.6,29.5,29.83,West,280,4.0,5.0,88,0.00,,---,0.00,VWS V14.01,2013-03-01 13:40:00,
2013-03-01 08:42:00,32.6,29.5,29.83,North,360,4.0,10.0,88,0.00,,---,0.00,VWS V14.01,2013-03-01 13:42:00,
2013-03-01 08:44:00,32.6,29.5,29.83,NW,325,2.0,10.0,88,0.00,,---,0.00,VWS V14.01,2013-03-01 13:44:00,
2013-03-01 08:45:00,32.6,29.5,29.83,WNW,297,4.0,10.0,88,0.00,,---,0.00,VWS V14.01,2013-03-01 13:45:00,
2013-03-01 08:47:00,32.6,29.5,29.83,West,275,6.0,10.0,88,0.00,,---,0.00,VWS V14.01,2013-03-01 13:47:00,
2013-03-01 08:49:00,32.6,29.5,29.83,WNW,291,3.0,10.0,88,0.00,,---,0.00,VWS V14.01,2013-03-01 13:49:00,
2013-03-01 08:50:00,32.6,29.5,29.83,West,277,9.0,10.0,88,0.00,,---,0.00,VWS V14.01,2013-03-01 13:50:00,
2013-03-01 08:51:00,32.6,29.5,29.83,WNW,283,5.0,10.0,88,0.00,,---,0.00,VWS V14.01,2013-03-01 13:51:00,
2013-03-01 08:52:00,32.6,29.5,29.83,West,263,4.0,10.0,88,0.00,,---,0.00,VWS V14.01,2013-03-01 13:52:00,
2013-03-01 08:55:00,32.6,29.5,29.83,West,265,6.0,10.0,88,0.00,,---,0.00,VWS V14.01,2013-03-01 13:55:00,
2013-03-01 08:56:00,32.6,29.5,29.83,West,277,2.0,10.0,88,0.00,,---,0.00,VWS V14.01,2013-03-01 13:56:00,
2013-03-01 08:57:00,32.6,29.5,29.83,West,263,3.0,10.0,88,0.00,,---,0.00,VWS V14.01,2013-03-01 13:57:00,
2013-03-01 08:58:00,32.6,29.5,29.83,West,269,1.0,10.0,88,0.00,,---,0.00,VWS V14.01,2013-03-01 13:58:00,
2013-03-01 09:00:00,32.6,29.5,29.83,West,261,8.0,10.0,88,0.00,,---,0.00,VWS V14.01,2013-03-01 14:00:00,
2013-03-01 09:01:00,32.6,29.5,29.83,WNW,286,3.0,10.0,88,0.00,,---,0.00,VWS V14.01,2013-03-01 14:01:00,
2013-03-01 09:03:00,32.6,29.5,29.83,WNW,284,7.0,10.0,88,0.00,,---,0.00,VWS V14.01,2013-03-01 14:03:00,
2013-03-01 09:04:00,32.6,29.5,29.83,NW,308,2.0,10.0,88,0.00,,---,0.00,VWS V14.01,2013-03-01 14:04:00,
2013-03-01 09:05:00,32.6,29.5,29.83,West,275,1.0,5.0,88,0.00,,---,0.00,VWS V14.01,2013-03-01 14:05:00,
2013-03-01 09:06:00,32.6,29.5,29.83,WNW,302,4.0,5.0,88,0.00,,---,0.00,VWS V14.01,2013-03-01 14:06:00,
2013-03-01 09:08:00,32.6,29.5,29.83,West,281,2.0,7.0,88,0.00,,---,0.00,VWS V14.01,2013-03-01 14:08:00,
2013-03-01 09:10:00,32.6,29.5,29.83,NW,306,2.0,7.0,88,0.00,,---,0.00,VWS V14.01,2013-03-01 14:10:00,
2013-03-01 09:11:00,32.6,29.5,29.83,West,271,6.0,7.0,88,0.00,,---,0.00,VWS V14.01,2013-03-01 14:11:00,
2013-03-01 09:13:00,32.7,29.5,29.83,WNW,290,3.0,7.0,88,0.00,,---,0.00,VWS V14.01,2013-03-01 14:13:00,
2013-03-01 09:15:00,32.7,29.5,29.83,WNW,288,3.0,7.0,88,0.00,,---,0.00,VWS V14.01,2013-03-01 14:15:00,
2013-03-01 09:17:00,32.8,29.6,29.83,WNW,302,7.0,7.0,88,0.00,,---,0.00,VWS V14.01,2013-03-01 14:17:00,
2013-03-01 09:18:00,32.8,29.6,29.83,WNW,286,4.0,7.0,88,0.00,,---,0.00,VWS V14.01,2013-03-01 14:18:00,
2013-03-01 09:19:00,32.8,29.6,29.83,WNW,286,2.0,7.0,88,0.00,,---,0.00,VWS V14.01,2013-03-01 14:19:00,
2013-03-01 09:20:00,32.8,29.4,29.83,NW,310,2.0,7.0,87,0.00,,---,0.00,VWS V14.01,2013-03-01 14:20:00,
2013-03-01 09:22:00,32.8,29.4,29.83,WNW,287,2.0,7.0,87,0.00,,---,0.00,VWS V14.01,2013-03-01 14:22:00,
2013-03-01 09:23:00,32.9,29.5,29.83,WNW,286,3.0,7.0,87,0.00,,---,0.00,VWS V14.01,2013-03-01 14:23:00,
2013-03-01 09:24:00,32.8,29.4,29.83,WNW,294,2.0,7.0,87,0.00,,---,0.00,VWS V14.01,2013-03-01 14:24:00,
2013-03-01 09:25:00,32.9,29.5,29.83,WNW,284,3.0,7.0,87,0.00,,---,0.00,VWS V14.01,2013-03-01 14:25:00,
2013-03-01 09:28:00,32.8,29.4,29.83,NW,304,3.0,7.0,87,0.00,,---,0.00,VWS V14.01,2013-03-01 14:28:00,
2013-03-01 09:29:00,32.9,29.5,29.83,WNW,293,2.0,7.0,87,0.00,,---,0.00,VWS V14.01,2013-03-01 14:29:00,
2013-03-01 09:30:00,32.9,29.5,29.83,West,281,3.0,7.0,87,0.00,,---,0.00,VWS V14.01,2013-03-01 14:30:00,
2013-03-01 09:33:00,32.8,29.4,29.83,NW,318,0.0,7.0,87,0.00,,---,0.00,VWS V14.01,2013-03-01 14:33:00,
2013-03-01 09:35:00,32.9,29.5,29.83,WNW,286,2.0,3.0,87,0.00,,---,0.00,VWS V14.01,2013-03-01 14:35:00,
2013-03-01 09:38:00,32.9,29.5,29.83,WNW,299,2.0,5.0,87,0.00,,---,0.00,VWS V14.01,2013-03-01 14:38:00,
2013-03-01 09:39:00,32.9,29.5,29.83,NNW,336,4.0,11.0,87,0.00,,---,0.00,VWS V14.01,2013-03-01 14:39:00,
2013-03-01 09:40:00,32.8,29.4,29.83,North,5,4.0,11.0,87,0.00,,---,0.00,VWS V14.01,2013-03-01 14:40:00,
2013-03-01 09:41:00,32.8,29.4,29.83,NW,316,1.0,11.0,87,0.00,,---,0.00,VWS V14.01,2013-03-01 14:41:00,
2013-03-01 09:43:00,32.8,29.1,29.83,NW,325,4.0,11.0,86,0.00,,---,0.00,VWS V14.01,2013-03-01 14:43:00,
2013-03-01 09:44:00,32.8,29.1,29.83,WNW,295,5.0,11.0,86,0.00,,---,0.00,VWS V14.01,2013-03-01 14:44:00,
2013-03-01 09:45:00,32.8,29.1,29.83,NNW,334,3.0,11.0,86,0.00,,---,0.00,VWS V14.01,2013-03-01 14:45:00,
2013-03-01 09:46:00,32.8,29.1,29.83,WNW,290,2.0,11.0,86,0.00,,---,0.00,VWS V14.01,2013-03-01 14:46:00,
2013-03-01 09:49:00,32.8,29.1,29.83,NW,309,2.0,11.0,86,0.00,,---,0.00,VWS V14.01,2013-03-01 14:49:00,
2013-03-01 09:50:00,32.8,29.1,29.83,NW,321,4.0,11.0,86,0.00,,---,0.00,VWS V14.01,2013-03-01 14:50:00,
2013-03-01 09:51:00,32.8,29.1,29.83,NW,306,3.0,11.0,86,0.00,,---,0.00,VWS V14.01,2013-03-01 14:51:00,
2013-03-01 09:54:00,32.9,29.2,29.83,NW,306,2.0,11.0,86,0.00,,---,0.00,VWS V14.01,2013-03-01 14:54:00,
2013-03-01 09:55:00,32.9,29.2,29.83,WNW,291,1.0,11.0,86,0.00,,---,0.00,VWS V14.01,2013-03-01 14:55:00,
2013-03-01 09:56:00,32.9,28.9,29.83,North,355,1.0,11.0,85,0.00,,---,0.00,VWS V14.01,2013-03-01 14:56:00,
2013-03-01 09:59:00,33.0,29.0,29.83,WNW,292,2.0,11.0,85,0.00,,---,0.00,VWS V14.01,2013-03-01 14:59:00,
2013-03-01 10:00:00,33.0,29.0,29.83,North,355,2.0,11.0,85,0.00,,---,0.00,VWS V14.01,2013-03-01 15:00:00,
2013-03-01 10:01:00,33.0,29.0,29.83,NNW,330,0.0,11.0,85,0.00,,---,0.00,VWS V14.01,2013-03-01 15:01:00,
2013-03-01 10:04:00,33.2,28.9,29.83,North,355,3.0,5.0,84,0.00,,---,0.00,VWS V14.01,2013-03-01 15:04:00,
2013-03-01 10:05:00,33.2,28.9,29.83,NNW,330,3.0,5.0,84,0.00,,---,0.00,VWS V14.01,2013-03-01 15:05:00,
2013-03-01 10:06:00,33.2,28.9,29.83,North,9,2.0,5.0,84,0.00,,---,0.00,VWS V14.01,2013-03-01 15:06:00,
2013-03-01 10:07:00,33.2,28.9,29.83,WNW,297,5.0,9.0,84,0.00,,---,0.00,VWS V14.01,2013-03-01 15:07:00,
2013-03-01 10:10:00,33.4,28.8,29.83,WNW,294,2.0,9.0,83,0.00,,---,0.00,VWS V14.01,2013-03-01 15:10:00,
2013-03-01 10:11:00,33.4,28.8,29.83,North,355,4.0,9.0,83,0.00,,---,0.00,VWS V14.01,2013-03-01 15:11:00,
2013-03-01 10:12:00,33.4,28.8,29.83,WNW,284,2.0,15.0,83,0.00,,---,0.00,VWS V14.01,2013-03-01 15:12:00,
2013-03-01 10:16:00,33.5,28.6,29.83,North,360,5.0,15.0,82,0.00,,---,0.00,VWS V14.01,2013-03-01 15:16:00,
2013-03-01 10:17:00,33.5,28.6,29.83,NNW,345,3.0,15.0,82,0.00,,---,0.00,VWS V14.01,2013-03-01 15:17:00,
2013-03-01 10:21:00,33.6,28.7,29.83,WNW,300,3.0,15.0,82,0.00,,---,0.00,VWS V14.01,2013-03-01 15:21:00,
2013-03-01 10:23:00,33.6,28.7,29.83,NW,322,0.0,15.0,82,0.00,,---,0.00,VWS V14.01,2013-03-01 15:23:00,
2013-03-01 10:26:00,33.7,28.8,29.83,NNW,336,4.0,15.0,82,0.00,,---,0.00,VWS V14.01,2013-03-01 15:26:00,
2013-03-01 10:27:00,33.7,28.8,29.83,NNW,348,2.0,15.0,82,0.00,,---,0.00,VWS V14.01,2013-03-01 15:27:00,
2013-03-01 10:28:00,33.8,28.9,29.83,WNW,300,2.0,15.0,82,0.00,,---,0.00,VWS V14.01,2013-03-01 15:28:00,
2013-03-01 10:31:00,33.9,29.0,29.83,North,355,1.0,15.0,82,0.00,,---,0.00,VWS V14.01,2013-03-01 15:31:00,
2013-03-01 10:32:00,33.8,28.9,29.83,NNW,344,4.0,15.0,82,0.00,,---,0.00,VWS V14.01,2013-03-01 15:32:00,
2013-03-01 10:34:00,33.9,29.0,29.83,NNW,347,6.0,15.0,82,0.00,,---,0.00,VWS V14.01,2013-03-01 15:34:00,
2013-03-01 10:36:00,33.9,28.7,29.83,NW,317,1.0,6.0,81,0.00,,---,0.00,VWS V14.01,2013-03-01 15:36:00,
2013-03-01 10:37:00,34.0,28.8,29.83,NW,306,2.0,6.0,81,0.00,,---,0.00,VWS V14.01,2013-03-01 15:37:00,
2013-03-01 10:39:00,33.9,28.7,29.83,WSW,257,2.0,7.0,81,0.00,,---,0.00,VWS V14.01,2013-03-01 15:39:00,
2013-03-01 10:42:00,33.9,28.7,29.83,NW,304,5.0,7.0,81,0.00,,---,0.00,VWS V14.01,2013-03-01 15:42:00,
2013-03-01 10:44:00,33.9,28.7,29.83,NW,311,1.0,9.0,81,0.00,,---,0.00,VWS V14.01,2013-03-01 15:44:00,
2013-03-01 10:47:00,33.9,28.7,29.83,NW,321,5.0,9.0,81,0.00,,---,0.00,VWS V14.01,2013-03-01 15:47:00,
2013-03-01 10:48:00,33.8,28.6,29.83,NW,306,4.0,9.0,81,0.00,,---,0.00,VWS V14.01,2013-03-01 15:48:00,
2013-03-01 10:49:00,33.8,28.6,29.83,WNW,287,3.0,12.0,81,0.00,,---,0.00,VWS V14.01,2013-03-01 15:49:00,
2013-03-01 10:52:00,33.8,28.6,29.83,North,351,0.0,12.0,81,0.00,,---,0.00,VWS V14.01,2013-03-01 15:52:00,
2013-03-01 10:53:00,33.8,28.6,29.83,NNW,337,0.0,12.0,81,0.00,,---,0.00,VWS V14.01,2013-03-01 15:53:00,
2013-03-01 10:54:00,33.8,28.9,29.83,NNW,331,3.0,12.0,82,0.00,,---,0.00,VWS V14.01,2013-03-01 15:54:00,
2013-03-01 10:57:00,33.9,28.7,29.83,NW,319,2.0,12.0,81,0.00,,---,0.00,VWS V14.01,2013-03-01 15:57:00,
2013-03-01 10:58:00,33.8,28.6,29.83,NW,317,3.0,12.0,81,0.00,,---,0.00,VWS V14.01,2013-03-01 15:58:00,
2013-03-01 10:59:00,33.8,28.6,29.83,NNE,19,3.0,12.0,81,0.00,,---,0.00,VWS V14.01,2013-03-01 15:59:00,
2013-03-01 11:03:00,33.8,28.9,29.83,NW,310,1.0,12.0,82,0.00,,---,0.00,VWS V14.01,2013-03-01 16:03:00,
2013-03-01 11:05:00,33.8,28.9,29.83,WNW,300,4.0,5.0,82,0.00,,---,0.00,VWS V14.01,2013-03-01 16:05:00,
2013-03-01 11:08:00,33.7,28.8,29.83,West,270,5.0,5.0,82,0.00,,---,0.00,VWS V14.01,2013-03-01 16:08:00,
2013-03-01 11:10:00,33.6,28.7,29.83,WNW,299,2.0,6.0,82,0.00,,---,0.00,VWS V14.01,2013-03-01 16:10:00,
2013-03-01 11:13:00,33.5,28.6,29.83,NW,323,2.0,6.0,82,0.00,,---,0.00,VWS V14.01,2013-03-01 16:13:00,
2013-03-01 11:14:00,33.5,28.6,29.83,WNW,296,2.0,6.0,82,0.00,,---,0.00,VWS V14.01,2013-03-01 16:14:00,
2013-03-01 11:15:00,33.6,28.7,29.83,WNW,298,0.0,6.0,82,0.00,,---,0.00,VWS V14.01,2013-03-01 16:15:00,
2013-03-01 11:18:00,33.6,28.7,29.83,NW,307,3.0,6.0,82,0.00,,---,0.00,VWS V14.01,2013-03-01 16:18:00,
2013-03-01 11:19:00,33.7,28.8,29.83,NW,317,3.0,6.0,82,0.00,,---,0.00,VWS V14.01,2013-03-01 16:19:00,
2013-03-01 11:21:00,33.7,28.8,29.83,West,259,4.0,6.0,82,0.00,,---,0.00,VWS V14.01,2013-03-01 16:21:00,
2013-03-01 11:23:00,33.7,28.8,29.83,North,355,1.0,7.0,82,0.00,,---,0.00,VWS V14.01,2013-03-01 16:23:00,
2013-03-01 11:24:00,33.8,28.9,29.83,West,279,1.0,7.0,82,0.00,,---,0.00,VWS V14.01,2013-03-01 16:24:00,
2013-03-01 11:25:00,33.8,28.9,29.83,West,279,0.0,7.0,82,0.00,,---,0.00,VWS V14.01,2013-03-01 16:25:00,
2013-03-01 11:27:00,34.0,29.1,29.83,WNW,286,7.0,9.0,82,0.00,,---,0.00,VWS V14.01,2013-03-01 16:27:00,
2013-03-01 11:29:00,34.0,28.8,29.83,WNW,302,3.0,9.0,81,0.00,,---,0.00,VWS V14.01,2013-03-01 16:29:00,
2013-03-01 11:30:00,34.0,28.8,29.83,WNW,292,0.0,9.0,81,0.00,,---,0.00,VWS V14.01,2013-03-01 16:30:00,
2013-03-01 11:32:00,34.1,28.9,29.83,NW,318,3.0,9.0,81,0.00,,---,0.00,VWS V14.01,2013-03-01 16:32:00,
2013-03-01 11:34:00,34.1,28.9,29.83,NNW,329,2.0,9.0,81,0.00,,---,0.00,VWS V14.01,2013-03-01 16:34:00,
2013-03-01 11:35:00,34.1,28.9,29.83,West,276,2.0,3.0,81,0.00,,---,0.00,VWS V14.01,2013-03-01 16:35:00,
2013-03-01 11:38:00,34.2,29.0,29.83,WNW,299,4.0,4.0,81,0.00,,---,0.00,VWS V14.01,2013-03-01 16:38:00,
2013-03-01 11:39:00,34.1,28.9,29.83,WNW,288,2.0,5.0,81,0.00,,---,0.00,VWS V14.01,2013-03-01 16:39:00,
2013-03-01 11:40:00,34.1,28.6,29.83,WNW,294,1.0,5.0,80,0.00,,---,0.00,VWS V14.01,2013-03-01 16:40:00,
2013-03-01 11:43:00,34.2,29.0,29.83,West,265,1.0,5.0,81,0.00,,---,0.00,VWS V14.01,2013-03-01 16:43:00,
2013-03-01 11:44:00,34.2,28.7,29.83,WNW,286,0.0,5.0,80,0.00,,---,0.00,VWS V14.01,2013-03-01 16:44:00,
2013-03-01 11:45:00,34.3,28.8,29.83,NW,304,2.0,5.0,80,0.00,,---,0.00,VWS V14.01,2013-03-01 16:45:00,
2013-03-01 11:49:00,34.4,28.9,29.83,NW,324,2.0,6.0,80,0.00,,---,0.00,VWS V14.01,2013-03-01 16:49:00,
2013-03-01 11:50:00,34.6,29.1,29.83,NNW,344,5.0,6.0,80,0.00,,---,0.00,VWS V14.01,2013-03-01 16:50:00,
2013-03-01 11:51:00,34.6,28.8,29.83,NW,326,4.0,7.0,79,0.00,,---,0.00,VWS V14.01,2013-03-01 16:51:00,
2013-03-01 11:54:00,34.8,29.0,29.83,NW,322,1.0,10.0,79,0.00,,---,0.00,VWS V14.01,2013-03-01 16:54:00,
2013-03-01 11:55:00,34.9,28.8,29.83,NW,318,1.0,10.0,78,0.00,,---,0.00,VWS V14.01,2013-03-01 16:55:00,
2013-03-01 11:56:00,34.9,28.8,29.83,NNW,335,3.0,10.0,78,0.00,,---,0.00,VWS V14.01,2013-03-01 16:56:00,
2013-03-01 12:00:00,34.8,28.3,29.83,NNW,330,6.0,10.0,77,0.00,,---,0.00,VWS V14.01,2013-03-01 17:00:00,
2013-03-01 12:01:00,34.7,28.2,29.83,NW,322,4.0,10.0,77,0.00,,---,0.00,VWS V14.01,2013-03-01 17:01:00,
2013-03-01 12:02:00,34.7,28.2,29.83,NNW,329,2.0,10.0,77,0.00,,---,0.00,VWS V14.01,2013-03-01 17:02:00,
2013-03-01 12:05:00,34.6,28.1,29.83,WNW,291,0.0,7.0,77,0.00,,---,0.00,VWS V14.01,2013-03-01 17:05:00,
2013-03-01 12:06:00,34.6,28.1,29.83,WNW,291,4.0,7.0,77,0.00,,---,0.00,VWS V14.01,2013-03-01 17:06:00,
2013-03-01 12:07:00,34.6,28.1,29.83,WNW,294,2.0,7.0,77,0.00,,---,0.00,VWS V14.01,2013-03-01 17:07:00,
2013-03-01 12:10:00,34.4,27.6,29.83,NNW,329,1.0,7.0,76,0.00,,---,0.00,VWS V14.01,2013-03-01 17:10:00,
2013-03-01 12:11:00,34.4,28.0,29.83,WNW,303,2.0,7.0,77,0.00,,---,0.00,VWS V14.01,2013-03-01 17:11:00,
2013-03-01 12:13:00,34.4,27.6,29.83,NW,309,3.0,7.0,76,0.00,,---,0.00,VWS V14.01,2013-03-01 17:13:00,
2013-03-01 12:15:00,34.4,27.6,29.83,NW,313,2.0,8.0,76,0.00,,---,0.00,VWS V14.01,2013-03-01 17:15:00,
2013-03-01 12:16:00,34.4,27.6,29.83,NW,305,1.0,8.0,76,0.00,,---,0.00,VWS V14.01,2013-03-01 17:16:00,
2013-03-01 12:17:00,34.4,28.0,29.83,NW,317,2.0,8.0,77,0.00,,---,0.00,VWS V14.01,2013-03-01 17:17:00,
2013-03-01 12:18:00,34.4,28.0,29.83,NNW,327,1.0,8.0,77,0.00,,---,0.00,VWS V14.01,2013-03-01 17:18:00,
2013-03-01 12:20:00,34.4,27.6,29.83,North,9,2.0,8.0,76,0.00,,---,0.00,VWS V14.01,2013-03-01 17:20:00,
2013-03-01 12:21:00,34.5,27.7,29.83,NNW,329,4.0,8.0,76,0.00,,---,0.00,VWS V14.01,2013-03-01 17:21:00,
2013-03-01 12:22:00,34.5,28.0,29.83,NW,318,3.0,8.0,77,0.00,,---,0.00,VWS V14.01,2013-03-01 17:22:00,
2013-03-01 12:24:00,34.6,28.1,29.83,NNW,331,3.0,8.0,77,0.00,,---,0.00,VWS V14.01,2013-03-01 17:24:00,
2013-03-01 12:26:00,34.5,27.7,29.83,WNW,300,3.0,8.0,76,0.00,,---,0.00,VWS V14.01,2013-03-01 17:26:00,
2013-03-01 12:27:00,34.5,27.4,29.83,NW,313,0.0,8.0,75,0.00,,---,0.00,VWS V14.01,2013-03-01 17:27:00,
2013-03-01 12:29:00,34.5,27.4,29.82,WNW,300,4.0,8.0,75,0.00,,---,0.00,VWS V14.01,2013-03-01 17:29:00,
2013-03-01 12:31:00,34.5,27.4,29.83,NW,311,2.0,8.0,75,0.00,,---,0.00,VWS V14.01,2013-03-01 17:31:00,
2013-03-01 12:32:00,34.4,27.3,29.82,NW,304,3.0,8.0,75,0.00,,---,0.00,VWS V14.01,2013-03-01 17:32:00,
2013-03-01 12:35:00,34.4,27.6,29.83,North,360,3.0,4.0,76,0.00,,---,0.00,VWS V14.01,2013-03-01 17:35:00,
2013-03-01 12:36:00,34.4,27.6,29.83,NNW,337,2.0,4.0,76,0.00,,---,0.00,VWS V14.01,2013-03-01 17:36:00,
2013-03-01 12:37:00,34.5,27.7,29.83,NW,323,2.0,4.0,76,0.00,,---,0.00,VWS V14.01,2013-03-01 17:37:00,
2013-03-01 12:40:00,34.6,27.5,29.82,West,273,4.0,6.0,75,0.00,,---,0.00,VWS V14.01,2013-03-01 17:40:00,
2013-03-01 12:41:00,34.6,27.5,29.82,WNW,300,3.0,6.0,75,0.00,,---,0.00,VWS V14.01,2013-03-01 17:41:00,
2013-03-01 12:42:00,34.5,27.4,29.82,NNW,346,2.0,6.0,75,0.00,,---,0.00,VWS V14.01,2013-03-01 17:42:00,
2013-03-01 12:43:00,34.5,27.4,29.82,NNW,337,3.0,6.0,75,0.00,,---,0.00,VWS V14.01,2013-03-01 17:43:00,
2013-03-01 12:46:00,34.6,27.5,29.82,NW,313,2.0,7.0,75,0.00,,---,0.00,VWS V14.01,2013-03-01 17:46:00,
2013-03-01 12:47:00,34.6,27.2,29.82,NNW,328,4.0,7.0,74,0.00,,---,0.00,VWS V14.01,2013-03-01 17:47:00,
2013-03-01 12:48:00,34.6,27.2,29.82,NNW,338,2.0,7.0,74,0.00,,---,0.00,VWS V14.01,2013-03-01 17:48:00,
2013-03-01 12:51:00,34.8,27.7,29.82,NW,307,3.0,8.0,75,0.00,,---,0.00,VWS V14.01,2013-03-01 17:51:00,
2013-03-01 12:52:00,34.9,27.8,29.82,NNW,338,5.0,8.0,75,0.00,,---,0.00,VWS V14.01,2013-03-01 17:52:00,
2013-03-01 12:53:00,35.0,27.9,29.82,NNW,346,11.0,11.0,75,0.00,,---,0.00,VWS V14.01,2013-03-01 17:53:00,
2013-03-01 12:56:00,35.0,27.6,29.82,WNW,300,2.0,11.0,74,0.00,,---,0.00,VWS V14.01,2013-03-01 17:56:00,
2013-03-01 12:58:00,35.0,27.6,29.82,WNW,303,2.0,11.0,74,0.00,,---,0.00,VWS V14.01,2013-03-01 17:58:00,
2013-03-01 13:01:00,35.0,27.6,29.82,WNW,283,4.0,11.0,74,0.00,,---,0.00,VWS V14.01,2013-03-01 18:01:00,
2013-03-01 13:02:00,35.0,27.6,29.82,WNW,290,3.0,11.0,74,0.00,,---,0.00,VWS V14.01,2013-03-01 18:02:00,
2013-03-01 13:03:00,34.9,27.5,29.82,NW,306,4.0,11.0,74,0.00,,---,0.00,VWS V14.01,2013-03-01 18:03:00,
2013-03-01 13:06:00,34.9,27.5,29.82,NW,306,7.0,7.0,74,0.00,,---,0.00,VWS V14.01,2013-03-01 18:06:00,
2013-03-01 13:07:00,34.8,27.7,29.82,West,267,6.0,7.0,75,0.00,,---,0.00,VWS V14.01,2013-03-01 18:07:00,
2013-03-01 13:09:00,34.8,27.4,29.82,West,280,3.0,9.0,74,0.00,,---,0.00,VWS V14.01,2013-03-01 18:09:00,
2013-03-01 13:12:00,34.9,27.8,29.82,West,272,7.0,10.0,75,0.00,,---,0.00,VWS V14.01,2013-03-01 18:12:00,
2013-03-01 13:14:00,35.0,27.9,29.82,NW,304,5.0,10.0,75,0.00,,---,0.00,VWS V14.01,2013-03-01 18:14:00,
2013-03-01 13:17:00,35.1,28.0,29.82,NW,307,4.0,10.0,75,0.00,,---,0.00,VWS V14.01,2013-03-01 18:17:00,
2013-03-01 13:18:00,35.1,28.0,29.81,North,355,6.0,10.0,75,0.00,,---,0.00,VWS V14.01,2013-03-01 18:18:00,
2013-03-01 13:19:00,35.3,27.9,29.81,WNW,298,1.0,10.0,74,0.00,,---,0.00,VWS V14.01,2013-03-01 18:19:00,
2013-03-01 13:20:00,35.3,27.9,29.81,NNW,341,4.0,10.0,74,0.00,,---,0.00,VWS V14.01,2013-03-01 18:20:00,
2013-03-01 13:23:00,35.6,27.8,29.81,NNW,342,3.0,10.0,73,0.00,,---,0.00,VWS V14.01,2013-03-01 18:23:00,
2013-03-01 13:24:00,35.7,28.2,29.82,NW,315,1.0,10.0,74,0.00,,---,0.00,VWS V14.01,2013-03-01 18:24:00,
2013-03-01 13:25:00,35.7,28.2,29.82,NNW,333,2.0,10.0,74,0.00,,---,0.00,VWS V14.01,2013-03-01 18:25:00,
2013-03-01 13:28:00,35.6,27.8,29.82,NNW,340,6.0,10.0,73,0.00,,---,0.00,VWS V14.01,2013-03-01 18:28:00,
2013-03-01 13:29:00,35.6,27.8,29.82,North,350,4.0,10.0,73,0.00,,---,0.00,VWS V14.01,2013-03-01 18:29:00,
2013-03-01 13:30:00,35.5,27.7,29.82,NNW,340,3.0,10.0,73,0.00,,---,0.00,VWS V14.01,2013-03-01 18:30:00,
2013-03-01 13:31:00,35.4,27.6,29.82,NNW,333,5.0,10.0,73,0.00,,---,0.00,VWS V14.01,2013-03-01 18:31:00,
2013-03-01 13:33:00,35.2,27.4,29.82,NNW,337,5.0,10.0,73,0.00,,---,0.00,VWS V14.01,2013-03-01 18:33:00,
2013-03-01 13:34:00,35.1,27.3,29.82,WNW,297,4.0,5.0,73,0.00,,---,0.00,VWS V14.01,2013-03-01 18:34:00,
2013-03-01 13:35:00,35.1,27.3,29.82,NNW,337,2.0,6.0,73,0.00,,---,0.00,VWS V14.01,2013-03-01 18:35:00,
2013-03-01 13:36:00,35.0,27.2,29.82,WNW,302,2.0,6.0,73,0.00,,---,0.00,VWS V14.01,2013-03-01 18:36:00,
2013-03-01 13:38:00,34.9,27.1,29.82,NW,310,1.0,6.0,73,0.00,,---,0.00,VWS V14.01,2013-03-01 18:38:00,
2013-03-01 13:39:00,34.8,27.4,29.82,NW,317,2.0,6.0,74,0.00,,---,0.00,VWS V14.01,2013-03-01 18:39:00,
2013-03-01 13:40:00,34.8,27.4,29.82,NNW,338,4.0,6.0,74,0.00,,---,0.00,VWS V14.01,2013-03-01 18:40:00,
2013-03-01 13:41:00,34.8,27.4,29.82,NNW,332,4.0,6.0,74,0.00,,---,0.00,VWS V14.01,2013-03-01 18:41:00,
2013-03-01 13:43:00,34.8,27.4,29.82,NNW,346,5.0,7.0,74,0.00,,---,0.00,VWS V14.01,2013-03-01 18:43:00,
2013-03-01 13:44:00,34.8,27.4,29.82,North,355,4.0,7.0,74,0.00,,---,0.00,VWS V14.01,2013-03-01 18:44:00,
2013-03-01 13:46:00,34.8,27.4,29.81,NNW,338,4.0,7.0,74,0.00,,---,0.00,VWS V14.01,2013-03-01 18:46:00,
2013-03-01 13:47:00,34.8,27.4,29.81,WNW,293,4.0,7.0,74,0.00,,---,0.00,VWS V14.01,2013-03-01 18:47:00,
2013-03-01 13:49:00,34.7,27.3,29.81,North,355,3.0,7.0,74,0.00,,---,0.00,VWS V14.01,2013-03-01 18:49:00,
2013-03-01 13:51:00,34.7,27.3,29.81,WNW,291,3.0,7.0,74,0.00,,---,0.00,VWS V14.01,2013-03-01 18:51:00,
2013-03-01 13:52:00,34.7,27.3,29.81,WNW,285,4.0,7.0,74,0.00,,---,0.00,VWS V14.01,2013-03-01 18:52:00,
2013-03-01 13:54:00,34.7,27.3,29.81,WNW,295,4.0,9.0,74,0.00,,---,0.00,VWS V14.01,2013-03-01 18:54:00,
2013-03-01 13:56:00,34.9,27.8,29.81,WNW,295,7.0,10.0,75,0.00,,---,0.00,VWS V14.01,2013-03-01 18:56:00,
2013-03-01 13:57:00,34.9,27.5,29.81,NW,313,5.0,10.0,74,0.00,,---,0.00,VWS V14.01,2013-03-01 18:57:00,
2013-03-01 14:00:00,35.1,27.7,29.80,WNW,294,5.0,10.0,74,0.00,,---,0.00,VWS V14.01,2013-03-01 19:00:00,
2013-03-01 14:01:00,35.2,27.8,29.81,NW,308,8.0,10.0,74,0.00,,---,0.00,VWS V14.01,2013-03-01 19:01:00,
2013-03-01 14:03:00,35.2,27.8,29.80,NW,322,5.0,10.0,74,0.00,,---,0.00,VWS V14.01,2013-03-01 19:03:00,
2013-03-01 14:05:00,35.2,27.4,29.81,WNW,294,4.0,5.0,73,0.00,,---,0.00,VWS V14.01,2013-03-01 19:05:00,
2013-03-01 14:06:00,35.2,27.8,29.81,NW,307,8.0,8.0,74,0.00,,---,0.00,VWS V14.01,2013-03-01 19:06:00,
2013-03-01 14:09:00,35.2,27.4,29.81,NNW,329,3.0,8.0,73,0.00,,---,0.00,VWS V14.01,2013-03-01 19:09:00,
2013-03-01 14:10:00,35.2,27.4,29.81,NW,323,1.0,8.0,73,0.00,,---,0.00,VWS V14.01,2013-03-01 19:10:00,
2013-03-01 14:12:00,35.4,27.6,29.81,WNW,295,4.0,8.0,73,0.00,,---,0.00,VWS V14.01,2013-03-01 19:12:00,
2013-03-01 14:14:00,35.6,27.8,29.80,NW,306,2.0,8.0,73,0.00,,---,0.00,VWS V14.01,2013-03-01 19:14:00,
2013-03-01 14:16:00,35.7,27.9,29.81,NNW,347,11.0,11.0,73,0.00,,---,0.00,VWS V14.01,2013-03-01 19:16:00,
2013-03-01 14:17:00,35.7,27.6,29.80,ENE,61,6.0,12.0,72,0.00,,---,0.00,VWS V14.01,2013-03-01 19:17:00,
2013-03-01 14:21:00,35.8,27.7,29.81,NNW,346,3.0,14.0,72,0.00,,---,0.00,VWS V14.01,2013-03-01 19:21:00,
2013-03-01 14:22:00,35.9,27.8,29.81,WNW,299,3.0,14.0,72,0.00,,---,0.00,VWS V14.01,2013-03-01 19:22:00,
2013-03-01 14:23:00,35.9,28.1,29.81,WNW,294,4.0,14.0,73,0.00,,---,0.00,VWS V14.01,2013-03-01 19:23:00,
2013-03-01 14:26:00,36.0,27.9,29.80,NW,314,4.0,14.0,72,0.00,,---,0.00,VWS V14.01,2013-03-01 19:26:00,
2013-03-01 14:27:00,36.0,27.9,29.80,NW,309,3.0,14.0,72,0.00,,---,0.00,VWS V14.01,2013-03-01 19:27:00,
2013-03-01 14:28:00,36.1,28.0,29.80,NW,306,3.0,14.0,72,0.00,,---,0.00,VWS V14.01,2013-03-01 19:28:00,
2013-03-01 14:32:00,36.0,27.5,29.80,WNW,298,2.0,14.0,71,0.00,,---,0.00,VWS V14.01,2013-03-01 19:32:00,
2013-03-01 14:33:00,35.9,27.4,29.80,NNW,327,3.0,14.0,71,0.00,,---,0.00,VWS V14.01,2013-03-01 19:33:00,
2013-03-01 14:37:00,36.0,27.5,29.80,NW,314,4.0,9.0,71,0.00,,---,0.00,VWS V14.01,2013-03-01 19:37:00,
2013-03-01 14:38:00,36.0,27.5,29.80,WNW,293,2.0,9.0,71,0.00,,---,0.00,VWS V14.01,2013-03-01 19:38:00,
2013-03-01 14:42:00,35.9,27.4,29.81,NW,323,5.0,12.0,71,0.00,,---,0.00,VWS V14.01,2013-03-01 19:42:00,
2013-03-01 14:43:00,35.7,27.2,29.80,WNW,302,7.0,12.0,71,0.00,,---,0.00,VWS V14.01,2013-03-01 19:43:00,
2013-03-01 14:44:00,35.6,27.5,29.81,WNW,300,3.0,12.0,72,0.00,,---,0.00,VWS V14.01,2013-03-01 19:44:00,
2013-03-01 14:47:00,35.4,27.3,29.81,NW,311,9.0,12.0,72,0.00,,---,0.00,VWS V14.01,2013-03-01 19:47:00,
2013-03-01 14:48:00,35.3,27.2,29.81,NNW,348,4.0,12.0,72,0.00,,---,0.00,VWS V14.01,2013-03-01 19:48:00,
2013-03-01 14:49:00,35.2,27.4,29.81,WNW,295,5.0,12.0,73,0.00,,---,0.00,VWS V14.01,2013-03-01 19:49:00,
2013-03-01 14:53:00,35.1,27.3,29.81,WSW,257,3.0,12.0,73,0.00,,---,0.00,VWS V14.01,2013-03-01 19:53:00,
2013-03-01 14:54:00,35.0,27.2,29.82,NW,313,4.0,12.0,73,0.00,,---,0.00,VWS V14.01,2013-03-01 19:54:00,
2013-03-01 14:58:00,34.9,27.5,29.82,WNW,291,7.0,12.0,74,0.00,,---,0.00,VWS V14.01,2013-03-01 19:58:00,
2013-03-01 14:59:00,34.9,27.5,29.82,WNW,300,1.0,12.0,74,0.00,,---,0.00,VWS V14.01,2013-03-01 19:59:00,
2013-03-01 15:00:00,34.8,27.4,29.82,NW,322,2.0,12.0,74,0.00,,---,0.00,VWS V14.01,2013-03-01 20:00:00,
2013-03-01 15:03:00,34.8,27.4,29.82,NW,310,5.0,12.0,74,0.00,,---,0.00,VWS V14.01,2013-03-01 20:03:00,
2013-03-01 15:04:00,34.8,27.4,29.82,WNW,303,0.0,12.0,74,0.00,,---,0.00,VWS V14.01,2013-03-01 20:04:00,
2013-03-01 15:05:00,34.8,27.4,29.82,NW,315,3.0,5.0,74,0.00,,---,0.00,VWS V14.01,2013-03-01 20:05:00,
2013-03-01 15:08:00,34.8,27.4,29.82,NW,311,4.0,5.0,74,0.00,,---,0.00,VWS V14.01,2013-03-01 20:08:00,
2013-03-01 15:09:00,34.7,27.3,29.82,NW,306,4.0,5.0,74,0.00,,---,0.00,VWS V14.01,2013-03-01 20:09:00,
2013-03-01 15:10:00,34.7,27.3,29.82,West,271,4.0,6.0,74,0.00,,---,0.00,VWS V14.01,2013-03-01 20:10:00,
2013-03-01 15:13:00,34.7,27.3,29.82,NNW,329,7.0,7.0,74,0.00,,---,0.00,VWS V14.01,2013-03-01 20:13:00,
2013-03-01 15:14:00,34.6,27.2,29.82,NW,315,6.0,7.0,74,0.00,,---,0.00,VWS V14.01,2013-03-01 20:14:00,
2013-03-01 15:15:00,34.6,27.2,29.82,NW,318,1.0,7.0,74,0.00,,---,0.00,VWS V14.01,2013-03-01 20:15:00,
2013-03-01 15:19:00,34.6,27.2,29.82,NNW,338,2.0,7.0,74,0.00,,---,0.00,VWS V14.01,2013-03-01 20:19:00,
2013-03-01 15:20:00,34.6,27.2,29.81,NNW,339,1.0,7.0,74,0.00,,---,0.00,VWS V14.01,2013-03-01 20:20:00,
2013-03-01 15:24:00,34.7,27.3,29.81,NW,319,2.0,7.0,74,0.00,,---,0.00,VWS V14.01,2013-03-01 20:24:00,
2013-03-01 15:25:00,34.7,27.6,29.81,NW,310,1.0,7.0,75,0.00,,---,0.00,VWS V14.01,2013-03-01 20:25:00,
2013-03-01 15:29:00,34.8,27.4,29.82,NW,306,5.0,7.0,74,0.00,,---,0.00,VWS V14.01,2013-03-01 20:29:00,
2013-03-01 15:30:00,34.8,27.4,29.82,NNW,331,4.0,9.0,74,0.00,,---,0.00,VWS V14.01,2013-03-01 20:30:00,
2013-03-01 15:31:00,34.8,27.4,29.82,WNW,301,5.0,9.0,74,0.00,,---,0.00,VWS V14.01,2013-03-01 20:31:00,
2013-03-01 15:34:00,34.7,27.3,29.82,NNW,331,2.0,2.0,74,0.00,,---,0.00,VWS V14.01,2013-03-01 20:34:00,
2013-03-01 15:35:00,34.7,27.3,29.82,WNW,301,3.0,5.0,74,0.00,,---,0.00,VWS V14.01,2013-03-01 20:35:00,
2013-03-01 15:36:00,34.7,27.3,29.82,NW,323,2.0,5.0,74,0.00,,---,0.00,VWS V14.01,2013-03-01 20:36:00,
2013-03-01 15:39:00,34.7,27.3,29.81,NW,325,1.0,5.0,74,0.00,,---,0.00,VWS V14.01,2013-03-01 20:39:00,
2013-03-01 15:40:00,34.7,27.3,29.81,NW,313,3.0,5.0,74,0.00,,---,0.00,VWS V14.01,2013-03-01 20:40:00,
2013-03-01 15:41:00,34.7,27.3,29.81,WNW,300,0.0,5.0,74,0.00,,---,0.00,VWS V14.01,2013-03-01 20:41:00,
2013-03-01 15:43:00,34.7,27.3,29.81,WNW,286,2.0,7.0,74,0.00,,---,0.00,VWS V14.01,2013-03-01 20:43:00,
2013-03-01 15:44:00,34.7,27.3,29.81,NW,305,2.0,7.0,74,0.00,,---,0.00,VWS V14.01,2013-03-01 20:44:00,
2013-03-01 15:46:00,34.7,27.3,29.81,WNW,300,2.0,7.0,74,0.00,,---,0.00,VWS V14.01,2013-03-01 20:46:00,
2013-03-01 15:48:00,34.7,27.3,29.82,NW,319,2.0,7.0,74,0.00,,---,0.00,VWS V14.01,2013-03-01 20:48:00,
2013-03-01 15:49:00,34.7,27.6,29.81,NW,325,3.0,7.0,75,0.00,,---,0.00,VWS V14.01,2013-03-01 20:49:00,
2013-03-01 15:51:00,34.7,27.3,29.81,WNW,290,5.0,7.0,74,0.00,,---,0.00,VWS V14.01,2013-03-01 20:51:00,
2013-03-01 15:53:00,34.8,27.7,29.81,WNW,297,5.0,7.0,75,0.00,,---,0.00,VWS V14.01,2013-03-01 20:53:00,
2013-03-01 15:55:00,34.7,27.3,29.81,NNW,331,6.0,7.0,74,0.00,,---,0.00,VWS V14.01,2013-03-01 20:55:00,
2013-03-01 15:56:00,34.7,27.3,29.81,NNW,333,2.0,9.0,74,0.00,,---,0.00,VWS V14.01,2013-03-01 20:56:00,
2013-03-01 15:58:00,34.6,27.5,29.81,NW,315,4.0,12.0,75,0.00,,---,0.00,VWS V14.01,2013-03-01 20:58:00,
2013-03-01 16:00:00,34.6,27.2,29.81,NW,320,3.0,12.0,74,0.00,,---,0.00,VWS V14.01,2013-03-01 21:00:00,
2013-03-01 16:01:00,34.6,27.5,29.82,NW,306,2.0,12.0,75,0.00,,---,0.00,VWS V14.01,2013-03-01 21:01:00,
2013-03-01 16:03:00,34.6,27.5,29.82,WNW,296,4.0,12.0,75,0.00,,---,0.00,VWS V14.01,2013-03-01 21:03:00,
2013-03-01 16:05:00,34.7,27.6,29.82,NNW,331,9.0,9.0,75,0.00,,---,0.00,VWS V14.01,2013-03-01 21:05:00,
2013-03-01 16:06:00,34.7,27.6,29.82,WNW,284,4.0,10.0,75,0.00,,---,0.00,VWS V14.01,2013-03-01 21:06:00,
2013-03-01 16:07:00,34.6,27.5,29.82,NW,315,6.0,10.0,75,0.00,,---,0.00,VWS V14.01,2013-03-01 21:07:00,
2013-03-01 16:09:00,34.6,27.5,29.82,North,5,6.0,10.0,75,0.00,,---,0.00,VWS V14.01,2013-03-01 21:09:00,
2013-03-01 16:10:00,34.5,27.4,29.82,NW,310,10.0,10.0,75,0.00,,---,0.00,VWS V14.01,2013-03-01 21:10:00,
2013-03-01 16:12:00,34.4,27.3,29.82,NNW,340,7.0,10.0,75,0.00,,---,0.00,VWS V14.01,2013-03-01 21:12:00,
2013-03-01 16:14:00,34.4,27.3,29.82,NNW,328,4.0,12.0,75,0.00,,---,0.00,VWS V14.01,2013-03-01 21:14:00,
2013-03-01 16:15:00,34.4,27.3,29.82,WNW,293,6.0,13.0,75,0.00,,---,0.00,VWS V14.01,2013-03-01 21:15:00,
2013-03-01 16:17:00,34.4,27.3,29.83,NW,324,1.0,13.0,75,0.00,,---,0.00,VWS V14.01,2013-03-01 21:17:00,
2013-03-01 16:18:00,34.4,27.3,29.83,NW,319,4.0,13.0,75,0.00,,---,0.00,VWS V14.01,2013-03-01 21:18:00,
2013-03-01 16:19:00,34.4,27.6,29.82,NW,312,4.0,13.0,76,0.00,,---,0.00,VWS V14.01,2013-03-01 21:19:00,
2013-03-01 16:21:00,34.2,27.4,29.83,WNW,287,4.0,13.0,76,0.00,,---,0.00,VWS V14.01,2013-03-01 21:21:00,
2013-03-01 16:22:00,34.2,27.4,29.83,West,270,7.0,13.0,76,0.00,,---,0.00,VWS V14.01,2013-03-01 21:22:00,
2013-03-01 16:23:00,34.1,27.3,29.83,WNW,296,8.0,13.0,76,0.00,,---,0.00,VWS V14.01,2013-03-01 21:23:00,
2013-03-01 16:24:00,34.1,27.3,29.83,North,360,4.0,15.0,76,0.00,,---,0.00,VWS V14.01,2013-03-01 21:24:00,
2013-03-01 16:26:00,34.0,27.2,29.83,North,5,3.0,15.0,76,0.00,,---,0.00,VWS V14.01,2013-03-01 21:26:00,
2013-03-01 16:27:00,33.9,27.1,29.83,NW,315,2.0,15.0,76,0.00,,---,0.00,VWS V14.01,2013-03-01 21:27:00,
2013-03-01 16:28:00,33.8,27.0,29.83,NW,316,4.0,15.0,76,0.00,,---,0.00,VWS V14.01,2013-03-01 21:28:00,
2013-03-01 16:30:00,33.8,27.4,29.83,NW,322,2.0,15.0,77,0.00,,---,0.00,VWS V14.01,2013-03-01 21:30:00,
2013-03-01 16:31:00,33.7,27.3,29.83,NNW,328,2.0,15.0,77,0.00,,---,0.00,VWS V14.01,2013-03-01 21:31:00,
2013-03-01 16:33:00,33.6,27.2,29.83,NW,326,2.0,15.0,77,0.00,,---,0.00,VWS V14.01,2013-03-01 21:33:00,
2013-03-01 16:34:00,33.6,27.2,29.83,North,351,9.0,15.0,77,0.00,,---,0.00,VWS V14.01,2013-03-01 21:34:00,
2013-03-01 16:35:00,33.5,27.1,29.83,WNW,300,4.0,9.0,77,0.00,,---,0.00,VWS V14.01,2013-03-01 21:35:00,
2013-03-01 16:37:00,33.4,27.0,29.83,NNW,333,7.0,9.0,77,0.00,,---,0.00,VWS V14.01,2013-03-01 21:37:00,
2013-03-01 16:39:00,33.4,27.0,29.83,WNW,299,4.0,9.0,77,0.00,,---,0.00,VWS V14.01,2013-03-01 21:39:00,
2013-03-01 16:40:00,33.4,27.0,29.83,NW,313,3.0,9.0,77,0.00,,---,0.00,VWS V14.01,2013-03-01 21:40:00,
2013-03-01 16:42:00,33.3,27.2,29.83,WNW,284,3.0,9.0,78,0.00,,---,0.00,VWS V14.01,2013-03-01 21:42:00,
2013-03-01 16:44:00,33.3,27.2,29.83,NNW,346,1.0,11.0,78,0.00,,---,0.00,VWS V14.01,2013-03-01 21:44:00,
2013-03-01 16:45:00,33.2,27.1,29.83,NW,326,4.0,11.0,78,0.00,,---,0.00,VWS V14.01,2013-03-01 21:45:00,
2013-03-01 16:48:00,33.2,27.1,29.83,NW,321,2.0,11.0,78,0.00,,---,0.00,VWS V14.01,2013-03-01 21:48:00,
2013-03-01 16:49:00,33.2,27.1,29.84,NNW,339,5.0,11.0,78,0.00,,---,0.00,VWS V14.01,2013-03-01 21:49:00,
2013-03-01 16:51:00,33.1,27.0,29.84,NNW,334,6.0,11.0,78,0.00,,---,0.00,VWS V14.01,2013-03-01 21:51:00,
2013-03-01 16:53:00,33.1,27.0,29.84,WNW,299,2.0,11.0,78,0.00,,---,0.00,VWS V14.01,2013-03-01 21:53:00,
2013-03-01 16:55:00,33.1,27.0,29.84,NW,309,2.0,11.0,78,0.00,,---,0.00,VWS V14.01,2013-03-01 21:55:00,
2013-03-01 16:56:00,33.0,26.9,29.84,WNW,296,5.0,11.0,78,0.00,,---,0.00,VWS V14.01,2013-03-01 21:56:00,
2013-03-01 16:58:00,33.0,26.9,29.84,NW,304,3.0,11.0,78,0.00,,---,0.00,VWS V14.01,2013-03-01 21:58:00,
2013-03-01 17:00:00,33.0,26.9,29.84,NW,306,3.0,11.0,78,0.00,,---,0.00,VWS V14.01,2013-03-01 22:00:00,
2013-03-01 17:02:00,33.0,26.9,29.84,NW,307,2.0,11.0,78,0.00,,---,0.00,VWS V14.01,2013-03-01 22:02:00,
2013-03-01 17:03:00,33.0,26.9,29.84,NW,317,6.0,11.0,78,0.00,,---,0.00,VWS V14.01,2013-03-01 22:03:00,
2013-03-01 17:06:00,32.9,26.8,29.84,NNW,330,4.0,9.0,78,0.00,,---,0.00,VWS V14.01,2013-03-01 22:06:00,
2013-03-01 17:07:00,32.9,26.8,29.84,West,281,4.0,9.0,78,0.00,,---,0.00,VWS V14.01,2013-03-01 22:07:00,
2013-03-01 17:08:00,32.9,26.8,29.84,WNW,301,7.0,9.0,78,0.00,,---,0.00,VWS V14.01,2013-03-01 22:08:00,
2013-03-01 17:11:00,32.9,26.8,29.84,NW,306,3.0,9.0,78,0.00,,---,0.00,VWS V14.01,2013-03-01 22:11:00,
2013-03-01 17:12:00,32.9,26.8,29.83,WNW,283,3.0,9.0,78,0.00,,---,0.00,VWS V14.01,2013-03-01 22:12:00,
2013-03-01 17:14:00,32.9,26.8,29.84,WNW,296,2.0,9.0,78,0.00,,---,0.00,VWS V14.01,2013-03-01 22:14:00,
2013-03-01 17:16:00,32.9,26.8,29.84,NNW,346,2.0,12.0,78,0.00,,---,0.00,VWS V14.01,2013-03-01 22:16:00,
2013-03-01 17:17:00,32.9,26.8,29.84,NNW,340,2.0,12.0,78,0.00,,---,0.00,VWS V14.01,2013-03-01 22:17:00,
2013-03-01 17:18:00,32.9,26.8,29.84,NW,306,3.0,12.0,78,0.00,,---,0.00,VWS V14.01,2013-03-01 22:18:00,
2013-03-01 17:19:00,32.9,26.8,29.84,WNW,288,3.0,12.0,78,0.00,,---,0.00,VWS V14.01,2013-03-01 22:19:00,
2013-03-01 17:22:00,32.9,27.1,29.84,NNW,327,1.0,12.0,79,0.00,,---,0.00,VWS V14.01,2013-03-01 22:22:00,
2013-03-01 17:23:00,32.8,27.0,29.84,NW,306,5.0,12.0,79,0.00,,---,0.00,VWS V14.01,2013-03-01 22:23:00,
2013-03-01 17:24:00,32.8,27.0,29.84,WNW,295,4.0,12.0,79,0.00,,---,0.00,VWS V14.01,2013-03-01 22:24:00,
2013-03-01 17:27:00,32.8,27.0,29.84,NW,321,3.0,12.0,79,0.00,,---,0.00,VWS V14.01,2013-03-01 22:27:00,
2013-03-01 17:28:00,32.8,27.0,29.84,WNW,302,4.0,12.0,79,0.00,,---,0.00,VWS V14.01,2013-03-01 22:28:00,
2013-03-01 17:29:00,32.8,27.0,29.84,NNW,345,8.0,12.0,79,0.00,,---,0.00,VWS V14.01,2013-03-01 22:29:00,
2013-03-01 17:32:00,32.7,26.9,29.84,NW,317,3.0,12.0,79,0.00,,---,0.00,VWS V14.01,2013-03-01 22:32:00,
2013-03-01 17:34:00,32.7,26.9,29.84,NNW,338,4.0,12.0,79,0.00,,---,0.00,VWS V14.01,2013-03-01 22:34:00,
2013-03-01 17:37:00,32.6,26.8,29.84,WNW,298,3.0,7.0,79,0.00,,---,0.00,VWS V14.01,2013-03-01 22:37:00,
2013-03-01 17:38:00,32.6,26.8,29.84,WNW,298,7.0,7.0,79,0.00,,---,0.00,VWS V14.01,2013-03-01 22:38:00,
2013-03-01 17:39:00,32.6,26.8,29.84,WNW,300,2.0,12.0,79,0.00,,---,0.00,VWS V14.01,2013-03-01 22:39:00,
2013-03-01 17:40:00,32.6,26.8,29.84,WNW,300,4.0,12.0,79,0.00,,---,0.00,VWS V14.01,2013-03-01 22:40:00,
2013-03-01 17:42:00,32.5,26.7,29.84,WNW,299,3.0,12.0,79,0.00,,---,0.00,VWS V14.01,2013-03-01 22:42:00,
2013-03-01 17:43:00,32.5,26.7,29.84,WNW,303,6.0,12.0,79,0.00,,---,0.00,VWS V14.01,2013-03-01 22:43:00,
2013-03-01 17:44:00,32.5,26.7,29.84,WNW,294,13.0,13.0,79,0.00,,---,0.00,VWS V14.01,2013-03-01 22:44:00,
2013-03-01 17:46:00,32.5,26.7,29.84,WNW,290,4.0,13.0,79,0.00,,---,0.00,VWS V14.01,2013-03-01 22:46:00,
2013-03-01 17:48:00,32.4,26.6,29.85,NW,311,2.0,13.0,79,0.00,,---,0.00,VWS V14.01,2013-03-01 22:48:00,
2013-03-01 17:50:00,32.4,26.6,29.84,WNW,294,1.0,13.0,79,0.00,,---,0.00,VWS V14.01,2013-03-01 22:50:00,
2013-03-01 17:52:00,32.4,26.9,29.85,NW,304,4.0,13.0,80,0.00,,---,0.00,VWS V14.01,2013-03-01 22:52:00,
2013-03-01 17:53:00,32.3,26.8,29.85,West,270,5.0,13.0,80,0.00,,---,0.00,VWS V14.01,2013-03-01 22:53:00,
2013-03-01 17:55:00,32.3,26.8,29.85,WNW,292,3.0,13.0,80,0.00,,---,0.00,VWS V14.01,2013-03-01 22:55:00,
2013-03-01 17:57:00,32.3,26.8,29.85,NW,317,2.0,13.0,80,0.00,,---,0.00,VWS V14.01,2013-03-01 22:57:00,
2013-03-01 17:58:00,32.3,26.8,29.85,NW,326,3.0,13.0,80,0.00,,---,0.00,VWS V14.01,2013-03-01 22:58:00,
2013-03-01 18:00:00,32.2,26.7,29.85,NW,317,4.0,13.0,80,0.00,,---,0.00,VWS V14.01,2013-03-01 23:00:00,
2013-03-01 18:02:00,32.2,26.7,29.85,WNW,296,2.0,13.0,80,0.00,,---,0.00,VWS V14.01,2013-03-01 23:02:00,
2013-03-01 18:03:00,32.1,26.6,29.85,WNW,303,6.0,13.0,80,0.00,,---,0.00,VWS V14.01,2013-03-01 23:03:00,
2013-03-01 18:04:00,32.1,26.6,29.85,WNW,292,3.0,13.0,80,0.00,,---,0.00,VWS V14.01,2013-03-01 23:04:00,
2013-03-01 18:05:00,32.1,26.6,29.85,WNW,294,4.0,6.0,80,0.00,,---,0.00,VWS V14.01,2013-03-01 23:05:00,
2013-03-01 18:07:00,32.1,26.6,29.85,WNW,288,3.0,7.0,80,0.00,,---,0.00,VWS V14.01,2013-03-01 23:07:00,
2013-03-01 18:08:00,32.0,26.5,29.85,NNW,340,2.0,7.0,80,0.00,,---,0.00,VWS V14.01,2013-03-01 23:08:00,
2013-03-01 18:09:00,32.0,26.5,29.85,NNW,329,1.0,10.0,80,0.00,,---,0.00,VWS V14.01,2013-03-01 23:09:00,
2013-03-01 18:10:00,32.0,26.5,29.85,WNW,301,3.0,10.0,80,0.00,,---,0.00,VWS V14.01,2013-03-01 23:10:00,
2013-03-01 18:13:00,32.0,26.5,29.85,NW,307,2.0,10.0,80,0.00,,---,0.00,VWS V14.01,2013-03-01 23:13:00,
2013-03-01 18:14:00,31.9,26.4,29.85,WNW,297,10.0,10.0,80,0.00,,---,0.00,VWS V14.01,2013-03-01 23:14:00,
2013-03-01 18:16:00,31.9,26.4,29.85,NNW,340,4.0,10.0,80,0.00,,---,0.00,VWS V14.01,2013-03-01 23:16:00,
2013-03-01 18:18:00,31.9,26.4,29.85,WNW,301,4.0,10.0,80,0.00,,---,0.00,VWS V14.01,2013-03-01 23:18:00,
2013-03-01 18:19:00,31.8,26.4,29.85,NW,313,3.0,10.0,80,0.00,,---,0.00,VWS V14.01,2013-03-01 23:19:00,
2013-03-01 18:21:00,31.8,26.4,29.85,WNW,302,2.0,10.0,80,0.00,,---,0.00,VWS V14.01,2013-03-01 23:21:00,
2013-03-01 18:23:00,31.7,26.2,29.86,WNW,289,1.0,10.0,80,0.00,,---,0.00,VWS V14.01,2013-03-01 23:23:00,
2013-03-01 18:24:00,31.7,26.5,29.86,WNW,300,3.0,10.0,81,0.00,,---,0.00,VWS V14.01,2013-03-01 23:24:00,
2013-03-01 18:25:00,31.7,26.5,29.86,WNW,299,3.0,10.0,81,0.00,,---,0.00,VWS V14.01,2013-03-01 23:25:00,
2013-03-01 18:26:00,31.7,26.5,29.86,WNW,299,2.0,10.0,81,0.00,,---,0.00,VWS V14.01,2013-03-01 23:26:00,
2013-03-01 18:29:00,31.6,26.5,29.86,WNW,284,2.0,10.0,81,0.00,,---,0.00,VWS V14.01,2013-03-01 23:29:00,
2013-03-01 18:30:00,31.6,26.5,29.86,NW,319,2.0,10.0,81,0.00,,---,0.00,VWS V14.01,2013-03-01 23:30:00,
2013-03-01 18:32:00,31.5,26.4,29.86,NW,312,4.0,10.0,81,0.00,,---,0.00,VWS V14.01,2013-03-01 23:32:00,
2013-03-01 18:34:00,31.5,26.4,29.86,NW,306,3.0,4.0,81,0.00,,---,0.00,VWS V14.01,2013-03-01 23:34:00,
2013-03-01 18:35:00,31.5,26.4,29.86,WNW,291,4.0,4.0,81,0.00,,---,0.00,VWS V14.01,2013-03-01 23:35:00,
2013-03-01 18:38:00,31.5,26.4,29.86,WNW,296,3.0,11.0,81,0.00,,---,0.00,VWS V14.01,2013-03-01 23:38:00,
2013-03-01 18:39:00,31.4,26.2,29.86,NW,313,1.0,11.0,81,0.00,,---,0.00,VWS V14.01,2013-03-01 23:39:00,
2013-03-01 18:40:00,31.4,26.2,29.86,WNW,300,2.0,11.0,81,0.00,,---,0.00,VWS V14.01,2013-03-01 23:40:00,
2013-03-01 18:43:00,31.4,26.2,29.86,NW,310,2.0,11.0,81,0.00,,---,0.00,VWS V14.01,2013-03-01 23:43:00,
2013-03-01 18:44:00,31.3,26.2,29.86,NW,323,4.0,11.0,81,0.00,,---,0.00,VWS V14.01,2013-03-01 23:44:00,
2013-03-01 18:45:00,31.3,26.2,29.87,NW,319,5.0,11.0,81,0.00,,---,0.00,VWS V14.01,2013-03-01 23:45:00,
2013-03-01 18:48:00,31.3,26.2,29.87,NNW,348,9.0,11.0,81,0.00,,---,0.00,VWS V14.01,2013-03-01 23:48:00,
2013-03-01 18:50:00,31.3,26.2,29.87,NW,305,6.0,11.0,81,0.00,,---,0.00,VWS V14.01,2013-03-01 23:50:00,
2013-03-01 18:51:00,31.3,26.2,29.87,NW,306,3.0,11.0,81,0.00,,---,0.00,VWS V14.01,2013-03-01 23:51:00,
2013-03-01 18:53:00,31.2,26.1,29.87,WNW,289,3.0,11.0,81,0.00,,---,0.00,VWS V14.01,2013-03-01 23:53:00,
2013-03-01 18:55:00,31.2,26.1,29.86,WNW,297,2.0,11.0,81,0.00,,---,0.00,VWS V14.01,2013-03-01 23:55:00,
2013-03-01 18:56:00,31.2,26.1,29.86,WNW,296,3.0,11.0,81,0.00,,---,0.00,VWS V14.01,2013-03-01 23:56:00,
2013-03-01 18:57:00,31.2,26.1,29.87,NNW,329,1.0,11.0,81,0.00,,---,0.00,VWS V14.01,2013-03-01 23:57:00,
2013-03-01 18:59:00,31.2,26.1,29.86,NNW,334,5.0,11.0,81,0.00,,---,0.00,VWS V14.01,2013-03-01 23:59:00,
2013-03-01 19:00:00,31.2,26.1,29.86,WNW,302,2.0,11.0,81,0.00,,---,0.00,VWS V14.01,2013-03-02 00:00:00,
2013-03-01 19:01:00,31.2,26.1,29.86,NW,308,6.0,11.0,81,0.00,,---,0.00,VWS V14.01,2013-03-02 00:01:00,
2013-03-01 19:02:00,31.2,26.1,29.86,NW,317,1.0,11.0,81,0.00,,---,0.00,VWS V14.01,2013-03-02 00:02:00,
2013-03-01 19:04:00,31.2,26.4,29.86,NW,315,5.0,5.0,82,0.00,,---,0.00,VWS V14.01,2013-03-02 00:04:00,
2013-03-01 19:05:00,31.1,26.3,29.86,NW,321,2.0,6.0,82,0.00,,---,0.00,VWS V14.01,2013-03-02 00:05:00,
2013-03-01 19:07:00,31.1,26.3,29.86,NW,309,4.0,7.0,82,0.00,,---,0.00,VWS V14.01,2013-03-02 00:07:00,
2013-03-01 19:09:00,31.1,26.3,29.86,NW,304,3.0,9.0,82,0.00,,---,0.00,VWS V14.01,2013-03-02 00:09:00,
2013-03-01 19:10:00,31.1,26.3,29.86,NW,316,5.0,9.0,82,0.00,,---,0.00,VWS V14.01,2013-03-02 00:10:00,
2013-03-01 19:12:00,31.1,26.3,29.86,NW,304,2.0,9.0,82,0.00,,---,0.00,VWS V14.01,2013-03-02 00:12:00,
2013-03-01 19:13:00,31.0,26.2,29.86,NW,317,9.0,9.0,82,0.00,,---,0.00,VWS V14.01,2013-03-02 00:13:00,
2013-03-01 19:14:00,31.0,26.2,29.86,NW,326,4.0,10.0,82,0.00,,---,0.00,VWS V14.01,2013-03-02 00:14:00,
2013-03-01 19:15:00,31.0,26.2,29.86,NW,325,2.0,10.0,82,0.00,,---,0.00,VWS V14.01,2013-03-02 00:15:00,
2013-03-01 19:17:00,31.0,26.2,29.86,NW,310,3.0,10.0,82,0.00,,---,0.00,VWS V14.01,2013-03-02 00:17:00,
2013-03-01 19:18:00,30.9,26.1,29.86,NW,307,4.0,10.0,82,0.00,,---,0.00,VWS V14.01,2013-03-02 00:18:00,
2013-03-01 19:19:00,30.9,26.1,29.86,West,277,5.0,10.0,82,0.00,,---,0.00,VWS V14.01,2013-03-02 00:19:00,
2013-03-01 19:20:00,30.9,26.1,29.86,NW,311,5.0,10.0,82,0.00,,---,0.00,VWS V14.01,2013-03-02 00:20:00,
2013-03-01 19:22:00,30.8,26.0,29.86,NNW,333,2.0,10.0,82,0.00,,---,0.00,VWS V14.01,2013-03-02 00:22:00,
2013-03-01 19:24:00,30.8,25.7,29.86,NW,309,5.0,10.0,81,0.00,,---,0.00,VWS V14.01,2013-03-02 00:24:00,
2013-03-01 19:25:00,30.7,25.6,29.86,WNW,300,5.0,10.0,81,0.00,,---,0.00,VWS V14.01,2013-03-02 00:25:00,
2013-03-01 19:27:00,30.8,25.7,29.86,NW,309,3.0,10.0,81,0.00,,---,0.00,VWS V14.01,2013-03-02 00:27:00,
2013-03-01 19:29:00,30.7,25.6,29.86,WNW,303,2.0,10.0,81,0.00,,---,0.00,VWS V14.01,2013-03-02 00:29:00,
2013-03-01 19:31:00,30.7,25.6,29.86,NW,324,1.0,10.0,81,0.00,,---,0.00,VWS V14.01,2013-03-02 00:31:00,
2013-03-01 19:32:00,30.7,25.6,29.86,NW,315,4.0,10.0,81,0.00,,---,0.00,VWS V14.01,2013-03-02 00:32:00,
2013-03-01 19:34:00,30.7,25.6,29.86,North,355,5.0,10.0,81,0.00,,---,0.00,VWS V14.01,2013-03-02 00:34:00,
2013-03-01 19:36:00,30.6,25.5,29.87,WNW,294,3.0,6.0,81,0.00,,---,0.00,VWS V14.01,2013-03-02 00:36:00,
2013-03-01 19:38:00,30.7,25.3,29.86,NW,317,2.0,6.0,80,0.00,,---,0.00,VWS V14.01,2013-03-02 00:38:00,
2013-03-01 19:39:00,30.6,25.2,29.86,NW,313,3.0,6.0,80,0.00,,---,0.00,VWS V14.01,2013-03-02 00:39:00,
2013-03-01 19:41:00,30.6,25.2,29.87,NW,313,2.0,6.0,80,0.00,,---,0.00,VWS V14.01,2013-03-02 00:41:00,
2013-03-01 19:43:00,30.6,25.2,29.87,NNW,334,4.0,6.0,80,0.00,,---,0.00,VWS V14.01,2013-03-02 00:43:00,
2013-03-01 19:44:00,30.6,25.2,29.87,NW,314,0.0,6.0,80,0.00,,---,0.00,VWS V14.01,2013-03-02 00:44:00,
2013-03-01 19:45:00,30.6,25.2,29.87,NW,313,2.0,6.0,80,0.00,,---,0.00,VWS V14.01,2013-03-02 00:45:00,
2013-03-01 19:46:00,30.6,25.2,29.87,NNE,26,2.0,6.0,80,0.00,,---,0.00,VWS V14.01,2013-03-02 00:46:00,
2013-03-01 19:48:00,30.6,25.2,29.87,NNW,346,3.0,6.0,80,0.00,,---,0.00,VWS V14.01,2013-03-02 00:48:00,
2013-03-01 19:49:00,30.6,25.2,29.87,NNW,341,8.0,8.0,80,0.00,,---,0.00,VWS V14.01,2013-03-02 00:49:00,
2013-03-01 19:50:00,30.6,25.2,29.87,NW,326,2.0,8.0,80,0.00,,---,0.00,VWS V14.01,2013-03-02 00:50:00,
2013-03-01 19:52:00,30.6,24.9,29.87,NNW,334,2.0,9.0,79,0.00,,---,0.00,VWS V14.01,2013-03-02 00:52:00,
2013-03-01 19:53:00,30.6,24.9,29.87,NNW,336,2.0,9.0,79,0.00,,---,0.00,VWS V14.01,2013-03-02 00:53:00,
2013-03-01 19:55:00,30.6,24.9,29.87,NNW,329,1.0,9.0,79,0.00,,---,0.00,VWS V14.01,2013-03-02 00:55:00,
2013-03-01 19:56:00,30.6,24.9,29.87,WNW,302,4.0,9.0,79,0.00,,---,0.00,VWS V14.01,2013-03-02 00:56:00,
2013-03-01 19:58:00,30.6,24.9,29.87,NW,304,4.0,9.0,79,0.00,,---,0.00,VWS V14.01,2013-03-02 00:58:00,
2013-03-01 20:00:00,30.6,24.9,29.87,NW,309,2.0,9.0,79,0.00,,---,0.00,VWS V14.01,2013-03-02 01:00:00,
2013-03-01 20:01:00,30.6,24.9,29.87,NNW,333,2.0,9.0,79,0.00,,---,0.00,VWS V14.01,2013-03-02 01:01:00,
2013-03-01 20:03:00,30.6,24.9,29.87,NNW,337,3.0,9.0,79,0.00,,---,0.00,VWS V14.01,2013-03-02 01:03:00,
2013-03-01 20:06:00,30.5,24.8,29.88,WNW,298,3.0,3.0,79,0.00,,---,0.00,VWS V14.01,2013-03-02 01:06:00,
2013-03-01 20:08:00,30.5,24.8,29.88,NNW,336,3.0,11.0,79,0.00,,---,0.00,VWS V14.01,2013-03-02 01:08:00,
2013-03-01 20:11:00,30.5,24.8,29.88,NNW,340,5.0,11.0,79,0.00,,---,0.00,VWS V14.01,2013-03-02 01:11:00,
2013-03-01 20:13:00,30.5,24.8,29.88,WNW,298,0.0,11.0,79,0.00,,---,0.00,VWS V14.01,2013-03-02 01:13:00,
2013-03-01 20:16:00,30.5,24.8,29.88,WNW,288,5.0,11.0,79,0.00,,---,0.00,VWS V14.01,2013-03-02 01:16:00,
2013-03-01 20:17:00,30.5,24.8,29.88,NNW,340,2.0,11.0,79,0.00,,---,0.00,VWS V14.01,2013-03-02 01:17:00,
2013-03-01 20:18:00,30.5,24.8,29.88,NW,307,3.0,11.0,79,0.00,,---,0.00,VWS V14.01,2013-03-02 01:18:00,
2013-03-01 20:21:00,30.5,24.8,29.88,NW,313,2.0,11.0,79,0.00,,---,0.00,VWS V14.01,2013-03-02 01:21:00,
2013-03-01 20:22:00,30.5,24.8,29.89,WNW,302,0.0,11.0,79,0.00,,---,0.00,VWS V14.01,2013-03-02 01:22:00,
2013-03-01 20:23:00,30.5,24.8,29.89,WNW,288,3.0,11.0,79,0.00,,---,0.00,VWS V14.01,2013-03-02 01:23:00,
2013-03-01 20:24:00,30.5,24.8,29.89,NW,323,1.0,11.0,79,0.00,,---,0.00,VWS V14.01,2013-03-02 01:24:00,
2013-03-01 20:26:00,30.4,24.7,29.89,NW,325,2.0,11.0,79,0.00,,---,0.00,VWS V14.01,2013-03-02 01:26:00,
2013-03-01 20:27:00,30.4,24.7,29.89,North,360,0.0,11.0,79,0.00,,---,0.00,VWS V14.01,2013-03-02 01:27:00,
2013-03-01 20:29:00,30.4,24.7,29.89,NNW,337,1.0,11.0,79,0.00,,---,0.00,VWS V14.01,2013-03-02 01:29:00,
2013-03-01 20:31:00,30.4,24.4,29.89,NW,319,2.0,11.0,78,0.00,,---,0.00,VWS V14.01,2013-03-02 01:31:00,
2013-03-01 20:32:00,30.4,24.7,29.89,WNW,290,2.0,11.0,79,0.00,,---,0.00,VWS V14.01,2013-03-02 01:32:00,
2013-03-01 20:34:00,30.4,24.7,29.89,NW,326,2.0,11.0,79,0.00,,---,0.00,VWS V14.01,2013-03-02 01:34:00,
2013-03-01 20:35:00,30.4,24.7,29.89,NW,325,3.0,7.0,79,0.00,,---,0.00,VWS V14.01,2013-03-02 01:35:00,
2013-03-01 20:36:00,30.4,24.7,29.89,NW,308,4.0,7.0,79,0.00,,---,0.00,VWS V14.01,2013-03-02 01:36:00,
2013-03-01 20:38:00,30.3,24.6,29.89,NW,313,2.0,7.0,79,0.00,,---,0.00,VWS V14.01,2013-03-02 01:38:00,
2013-03-01 20:39:00,30.3,24.6,29.89,NW,305,2.0,7.0,79,0.00,,---,0.00,VWS V14.01,2013-03-02 01:39:00,
2013-03-01 20:40:00,30.4,24.7,29.89,WNW,300,2.0,7.0,79,0.00,,---,0.00,VWS V14.01,2013-03-02 01:40:00,
2013-03-01 20:41:00,30.3,24.6,29.89,NW,311,2.0,7.0,79,0.00,,---,0.00,VWS V14.01,2013-03-02 01:41:00,
2013-03-01 20:43:00,30.3,24.6,29.89,NW,306,3.0,7.0,79,0.00,,---,0.00,VWS V14.01,2013-03-02 01:43:00,
2013-03-01 20:44:00,30.3,24.6,29.89,NNW,334,1.0,7.0,79,0.00,,---,0.00,VWS V14.01,2013-03-02 01:44:00,
2013-03-01 20:45:00,30.3,24.6,29.90,NW,325,1.0,7.0,79,0.00,,---,0.00,VWS V14.01,2013-03-02 01:45:00,
2013-03-01 20:47:00,30.3,24.6,29.90,NNW,334,1.0,7.0,79,0.00,,---,0.00,VWS V14.01,2013-03-02 01:47:00,
2013-03-01 20:48:00,30.3,24.6,29.90,NW,313,4.0,7.0,79,0.00,,---,0.00,VWS V14.01,2013-03-02 01:48:00,
2013-03-01 20:54:00,30.3,24.6,29.90,NW,306,3.0,3.0,79,0.00,,---,0.00,VWS V14.01,2013-03-02 01:54:00,
2013-03-01 20:55:00,30.3,24.6,29.90,WNW,302,2.0,3.0,79,0.00,,---,0.00,VWS V14.01,2013-03-02 01:55:00,
2013-03-01 20:59:00,30.3,24.6,29.90,WNW,302,3.0,6.0,79,0.00,,---,0.00,VWS V14.01,2013-03-02 01:59:00,
2013-03-01 21:00:00,30.3,24.6,29.90,WNW,302,3.0,6.0,79,0.00,,---,0.00,VWS V14.01,2013-03-02 02:00:00,
2013-03-01 21:01:00,30.3,24.6,29.90,NW,315,2.0,6.0,79,0.00,,---,0.00,VWS V14.01,2013-03-02 02:01:00,
2013-03-01 21:04:00,30.2,24.5,29.90,West,261,4.0,5.0,79,0.00,,---,0.00,VWS V14.01,2013-03-02 02:04:00,
2013-03-01 21:05:00,30.2,24.5,29.90,NW,304,6.0,6.0,79,0.00,,---,0.00,VWS V14.01,2013-03-02 02:05:00,
2013-03-01 21:06:00,30.2,24.5,29.90,WNW,296,4.0,6.0,79,0.00,,---,0.00,VWS V14.01,2013-03-02 02:06:00,
2013-03-01 21:10:00,30.2,24.5,29.90,NW,315,2.0,7.0,79,0.00,,---,0.00,VWS V14.01,2013-03-02 02:10:00,
2013-03-01 21:11:00,30.2,24.5,29.90,WNW,298,2.0,8.0,79,0.00,,---,0.00,VWS V14.01,2013-03-02 02:11:00,
2013-03-01 21:15:00,30.2,24.5,29.90,NW,305,3.0,10.0,79,0.00,,---,0.00,VWS V14.01,2013-03-02 02:15:00,
2013-03-01 21:16:00,30.2,24.5,29.90,NW,314,1.0,10.0,79,0.00,,---,0.00,VWS V14.01,2013-03-02 02:16:00,
2013-03-01 21:20:00,30.1,24.4,29.90,WNW,296,4.0,10.0,79,0.00,,---,0.00,VWS V14.01,2013-03-02 02:20:00,
2013-03-01 21:21:00,30.1,24.4,29.90,NW,309,3.0,10.0,79,0.00,,---,0.00,VWS V14.01,2013-03-02 02:21:00,
2013-03-01 21:26:00,30.1,24.4,29.90,NW,314,4.0,10.0,79,0.00,,---,0.00,VWS V14.01,2013-03-02 02:26:00,
2013-03-01 21:27:00,30.1,24.4,29.90,WNW,296,4.0,10.0,79,0.00,,---,0.00,VWS V14.01,2013-03-02 02:27:00,
2013-03-01 21:31:00,30.1,24.4,29.90,WNW,295,3.0,10.0,79,0.00,,---,0.00,VWS V14.01,2013-03-02 02:31:00,
2013-03-01 21:32:00,30.1,24.4,29.90,WNW,287,2.0,10.0,79,0.00,,---,0.00,VWS V14.01,2013-03-02 02:32:00,
2013-03-01 21:36:00,30.0,24.6,29.90,WNW,293,5.0,9.0,80,0.00,,---,0.00,VWS V14.01,2013-03-02 02:36:00,
2013-03-01 21:37:00,30.0,24.3,29.90,WNW,292,6.0,9.0,79,0.00,,---,0.00,VWS V14.01,2013-03-02 02:37:00,
2013-03-01 21:41:00,29.9,24.2,29.90,NW,312,2.0,9.0,79,0.00,,---,0.00,VWS V14.01,2013-03-02 02:41:00,
2013-03-01 21:42:00,29.9,24.2,29.90,West,281,3.0,9.0,79,0.00,,---,0.00,VWS V14.01,2013-03-02 02:42:00,
2013-03-01 21:43:00,29.9,24.2,29.90,NW,320,6.0,9.0,79,0.00,,---,0.00,VWS V14.01,2013-03-02 02:43:00,
2013-03-01 21:46:00,29.9,24.2,29.90,NW,311,7.0,10.0,79,0.00,,---,0.00,VWS V14.01,2013-03-02 02:46:00,
2013-03-01 21:47:00,29.9,24.2,29.90,West,273,4.0,10.0,79,0.00,,---,0.00,VWS V14.01,2013-03-02 02:47:00,
2013-03-01 21:48:00,29.9,24.2,29.90,WNW,300,5.0,10.0,79,0.00,,---,0.00,VWS V14.01,2013-03-02 02:48:00,
2013-03-01 21:51:00,29.8,24.1,29.90,WNW,299,5.0,10.0,79,0.00,,---,0.00,VWS V14.01,2013-03-02 02:51:00,
2013-03-01 21:52:00,29.8,24.1,29.90,WNW,296,3.0,10.0,79,0.00,,---,0.00,VWS V14.01,2013-03-02 02:52:00,
2013-03-01 21:53:00,29.8,24.1,29.90,WNW,294,3.0,10.0,79,0.00,,---,0.00,VWS V14.01,2013-03-02 02:53:00,
2013-03-01 21:56:00,29.8,24.1,29.90,WNW,300,6.0,10.0,79,0.00,,---,0.00,VWS V14.01,2013-03-02 02:56:00,
2013-03-01 21:58:00,29.8,24.1,29.90,NW,317,4.0,10.0,79,0.00,,---,0.00,VWS V14.01,2013-03-02 02:58:00,
2013-03-01 22:02:00,29.8,24.4,29.90,WNW,290,4.0,10.0,80,0.00,,---,0.00,VWS V14.01,2013-03-02 03:02:00,
2013-03-01 22:03:00,29.8,24.4,29.90,NW,304,4.0,10.0,80,0.00,,---,0.00,VWS V14.01,2013-03-02 03:03:00,
2013-03-01 22:07:00,29.8,24.4,29.90,WNW,303,4.0,6.0,80,0.00,,---,0.00,VWS V14.01,2013-03-02 03:07:00,
2013-03-01 22:08:00,29.7,24.3,29.90,WNW,296,3.0,7.0,80,0.00,,---,0.00,VWS V14.01,2013-03-02 03:08:00,
2013-03-01 22:12:00,29.7,24.3,29.89,WNW,292,4.0,10.0,80,0.00,,---,0.00,VWS V14.01,2013-03-02 03:12:00,
2013-03-01 22:13:00,29.7,24.3,29.89,WNW,300,4.0,10.0,80,0.00,,---,0.00,VWS V14.01,2013-03-02 03:13:00,
2013-03-01 22:17:00,29.6,24.2,29.89,WNW,296,5.0,12.0,80,0.00,,---,0.00,VWS V14.01,2013-03-02 03:17:00,
2013-03-01 22:18:00,29.6,24.2,29.89,WNW,303,6.0,12.0,80,0.00,,---,0.00,VWS V14.01,2013-03-02 03:18:00,
2013-03-01 22:23:00,29.6,24.2,29.89,WNW,298,6.0,12.0,80,0.00,,---,0.00,VWS V14.01,2013-03-02 03:23:00,
2013-03-01 22:24:00,29.6,24.2,29.89,NW,309,4.0,12.0,80,0.00,,---,0.00,VWS V14.01,2013-03-02 03:24:00,
2013-03-01 22:28:00,29.5,23.8,29.89,NW,305,5.0,12.0,79,0.00,,---,0.00,VWS V14.01,2013-03-02 03:28:00,
2013-03-01 22:29:00,29.5,23.8,29.89,NW,321,5.0,12.0,79,0.00,,---,0.00,VWS V14.01,2013-03-02 03:29:00,
2013-03-01 22:33:00,29.5,24.1,29.90,WNW,302,4.0,12.0,80,0.00,,---,0.00,VWS V14.01,2013-03-02 03:33:00,
2013-03-01 22:34:00,29.5,24.1,29.90,WNW,298,3.0,12.0,80,0.00,,---,0.00,VWS V14.01,2013-03-02 03:34:00,
2013-03-01 22:38:00,29.4,23.7,29.90,WNW,298,4.0,7.0,79,0.00,,---,0.00,VWS V14.01,2013-03-02 03:38:00,
2013-03-01 22:39:00,29.4,23.7,29.90,WNW,299,3.0,7.0,79,0.00,,---,0.00,VWS V14.01,2013-03-02 03:39:00,
2013-03-01 22:43:00,29.4,24.0,29.90,WNW,283,4.0,7.0,80,0.00,,---,0.00,VWS V14.01,2013-03-02 03:43:00,
2013-03-01 22:44:00,29.4,24.0,29.90,WNW,299,4.0,7.0,80,0.00,,---,0.00,VWS V14.01,2013-03-02 03:44:00,
2013-03-01 22:49:00,29.3,23.9,29.90,NW,317,4.0,12.0,80,0.00,,---,0.00,VWS V14.01,2013-03-02 03:49:00,
2013-03-01 22:54:00,29.3,23.9,29.90,NNW,336,4.0,12.0,80,0.00,,---,0.00,VWS V14.01,2013-03-02 03:54:00,
2013-03-01 22:55:00,29.3,23.9,29.90,NW,309,5.0,12.0,80,0.00,,---,0.00,VWS V14.01,2013-03-02 03:55:00,
2013-03-01 22:59:00,29.3,23.9,29.90,NNW,329,5.0,12.0,80,0.00,,---,0.00,VWS V14.01,2013-03-02 03:59:00,
2013-03-01 23:00:00,29.3,23.9,29.90,NW,308,3.0,12.0,80,0.00,,---,0.00,VWS V14.01,2013-03-02 04:00:00,
2013-03-01 23:04:00,29.3,23.9,29.90,WNW,296,4.0,7.0,80,0.00,,---,0.00,VWS V14.01,2013-03-02 04:04:00,
2013-03-01 23:05:00,29.3,23.9,29.90,WNW,293,4.0,7.0,80,0.00,,---,0.00,VWS V14.01,2013-03-02 04:05:00,
2013-03-01 23:10:00,29.2,23.8,29.90,NW,312,0.0,7.0,80,0.00,,---,0.00,VWS V14.01,2013-03-02 04:10:00,
2013-03-01 23:15:00,29.3,23.9,29.89,NW,307,2.0,7.0,80,0.00,,---,0.00,VWS V14.01,2013-03-02 04:15:00,
2013-03-01 23:20:00,29.3,23.9,29.89,NW,315,1.0,7.0,80,0.00,,---,0.00,VWS V14.01,2013-03-02 04:20:00,
2013-03-01 23:25:00,29.3,23.9,29.89,West,277,4.0,7.0,80,0.00,,---,0.00,VWS V14.01,2013-03-02 04:25:00,
2013-03-01 23:26:00,29.2,23.8,29.89,WNW,284,1.0,7.0,80,0.00,,---,0.00,VWS V14.01,2013-03-02 04:26:00,
2013-03-01 23:30:00,29.2,23.8,29.89,NNW,335,1.0,10.0,80,0.00,,---,0.00,VWS V14.01,2013-03-02 04:30:00,
2013-03-01 23:31:00,29.2,23.8,29.89,WNW,294,5.0,10.0,80,0.00,,---,0.00,VWS V14.01,2013-03-02 04:31:00,
2013-03-01 23:35:00,29.2,23.8,29.89,NW,315,4.0,6.0,80,0.00,,---,0.00,VWS V14.01,2013-03-02 04:35:00,
2013-03-01 23:36:00,29.2,23.8,29.89,WNW,298,4.0,6.0,80,0.00,,---,0.00,VWS V14.01,2013-03-02 04:36:00,
2013-03-01 23:37:00,29.2,23.8,29.88,WNW,302,2.0,6.0,80,0.00,,---,0.00,VWS V14.01,2013-03-02 04:37:00,
2013-03-01 23:41:00,29.1,23.7,29.88,NW,311,3.0,8.0,80,0.00,,---,0.00,VWS V14.01,2013-03-02 04:41:00,
2013-03-01 23:42:00,29.1,23.7,29.88,West,280,4.0,8.0,80,0.00,,---,0.00,VWS V14.01,2013-03-02 04:42:00,
2013-03-01 23:46:00,29.1,23.7,29.88,West,269,4.0,8.0,80,0.00,,---,0.00,VWS V14.01,2013-03-02 04:46:00,
2013-03-01 23:47:00,29.0,23.6,29.88,WNW,284,3.0,8.0,80,0.00,,---,0.00,VWS V14.01,2013-03-02 04:47:00,
2013-03-01 23:51:00,29.0,23.9,29.88,West,277,4.0,8.0,81,0.00,,---,0.00,VWS V14.01,2013-03-02 04:51:00,
2013-03-01 23:52:00,29.0,23.9,29.88,West,273,9.0,9.0,81,0.00,,---,0.00,VWS V14.01,2013-03-02 04:52:00,
2013-03-01 23:56:00,29.0,23.9,29.88,WNW,302,4.0,9.0,81,0.00,,---,0.00,VWS V14.01,2013-03-02 04:56:00,
2013-03-01 23:57:00,29.0,23.9,29.88,NW,313,4.0,9.0,81,0.00,,---,0.00,VWS V14.01,2013-03-02 04:57:00,
2013-03-01 23:58:00,28.9,23.8,29.88,NNW,333,1.0,9.0,81,0.00,,---,0.00,VWS V14.01,2013-03-02 04:58:00,